Observation data for Rotan on 11/17/2019      Previous  Date       Current Mesonet Observations  Soil Data  Daily Summary Page  Observations in Plain Language
KRO1 170600Z 22004KT 09/04 A2998 RMK A01 T00890039  RH  071%=      5-min Rain = 0
KRO1 170601Z 22004KT 09/04 A2998 RMK A01 T00890040  RH  071%=      5-min Rain = 0
KRO1 170602Z 22004KT 09/04 A2997 RMK A01 T00880039  RH  071%=      5-min Rain = 0
KRO1 170603Z 22004KT 09/04 A2998 RMK A01 T00890039  RH  071%=      5-min Rain = 0
KRO1 170604Z 22004KT 09/04 A2998 RMK A01 T00890039  RH  071%=      5-min Rain = 0
KRO1 170605Z 22004KT 09/04 A2998 RMK A01 T00890039  RH  071%=      5-min Rain = 0
KRO1 170606Z 22004KT 09/04 A2998 RMK A01 T00880039  RH  071%=      5-min Rain = 0
KRO1 170607Z 22004KT 09/04 A2998 RMK A01 T00880039  RH  071%=      5-min Rain = 0
KRO1 170608Z 22004KT 09/04 A2998 RMK A01 T00880039  RH  072%=      5-min Rain = 0
KRO1 170609Z 21005KT 09/04 A2998 RMK A01 T00870039  RH  072%=      5-min Rain = 0
KRO1 170610Z 21005KT 09/04 A2998 RMK A01 T00870039  RH  072%=      5-min Rain = 0
KRO1 170611Z 22005KT 09/04 A2998 RMK A01 T00860039  RH  072%=      5-min Rain = 0
KRO1 170612Z 22005KT 09/04 A2998 RMK A01 T00860039  RH  072%=      5-min Rain = 0
KRO1 170613Z 22005KT 09/04 A2998 RMK A01 T00850038  RH  072%=      5-min Rain = 0
KRO1 170614Z 21005KT 08/04 A2998 RMK A01 T00840038  RH  073%=      5-min Rain = 0
KRO1 170615Z 21006KT 08/04 A2998 RMK A01 T00830038  RH  073%=      5-min Rain = 0
KRO1 170616Z 21006KT 08/04 A2998 RMK A01 T00820038  RH  074%=      5-min Rain = 0
KRO1 170617Z 21006KT 08/04 A2998 RMK A01 T00810038  RH  074%=      5-min Rain = 0
KRO1 170618Z 21006KT 08/04 A2998 RMK A01 T00800038  RH  075%=      5-min Rain = 0
KRO1 170619Z 21006KT 08/04 A2998 RMK A01 T00790038  RH  075%=      5-min Rain = 0
KRO1 170620Z 21006KT 08/04 A2998 RMK A01 T00780037  RH  076%=      5-min Rain = 0
KRO1 170621Z 21006KT 08/04 A2998 RMK A01 T00770037  RH  076%=      5-min Rain = 0
KRO1 170622Z 21006KT 08/04 A2998 RMK A01 T00760037  RH  076%=      5-min Rain = 0
KRO1 170623Z 21006KT 08/04 A2998 RMK A01 T00750037  RH  077%=      5-min Rain = 0
KRO1 170624Z 22007KT 08/04 A2998 RMK A01 T00750037  RH  077%=      5-min Rain = 0
KRO1 170625Z 22006KT 07/04 A2998 RMK A01 T00740037  RH  077%=      5-min Rain = 0
KRO1 170626Z 22006KT 07/04 A2998 RMK A01 T00730037  RH  078%=      5-min Rain = 0
KRO1 170627Z 22007KT 07/04 A2998 RMK A01 T00720036  RH  078%=      5-min Rain = 0
KRO1 170628Z 22007KT 07/04 A2998 RMK A01 T00710036  RH  078%=      5-min Rain = 0
KRO1 170629Z 22008KT 07/04 A2998 RMK A01 T00690036  RH  079%=      5-min Rain = 0
KRO1 170630Z 22008KT 07/04 A2998 RMK A01 T00680035  RH  080%=      5-min Rain = 0
KRO1 170631Z 22009KT 07/04 A2998 RMK A01 T00670036  RH  080%=      5-min Rain = 0
KRO1 170632Z 22009KT 07/04 A2998 RMK A01 T00670036  RH  081%=      5-min Rain = 0
KRO1 170633Z 22008KT 07/04 A2998 RMK A01 T00680037  RH  080%=      5-min Rain = 0
KRO1 170634Z 22008KT 07/04 A2998 RMK A01 T00690038  RH  080%=      5-min Rain = 0
KRO1 170635Z 22008KT 07/04 A2998 RMK A01 T00720039  RH  080%=      5-min Rain = 0
KRO1 170636Z 22008KT 07/04 A2998 RMK A01 T00740040  RH  079%=      5-min Rain = 0
KRO1 170637Z 22008KT 08/04 A2998 RMK A01 T00760041  RH  078%=      5-min Rain = 0
KRO1 170638Z 22009KT 08/04 A2998 RMK A01 T00780041  RH  077%=      5-min Rain = 0
KRO1 170639Z 22009KT 08/04 A2998 RMK A01 T00790041  RH  077%=      5-min Rain = 0
KRO1 170640Z 22009KT 08/04 A2998 RMK A01 T00810041  RH  076%=      5-min Rain = 0
KRO1 170641Z 22009KT 08/04 A2998 RMK A01 T00820042  RH  076%=      5-min Rain = 0
KRO1 170642Z 21010KT 08/04 A2998 RMK A01 T00830042  RH  075%=      5-min Rain = 0
KRO1 170643Z 22010KT 08/04 A2998 RMK A01 T00840042  RH  075%=      5-min Rain = 0
KRO1 170644Z 21010KT 09/04 A2998 RMK A01 T00850042  RH  074%=      5-min Rain = 0
KRO1 170645Z 21010KT 09/04 A2998 RMK A01 T00850042  RH  074%=      5-min Rain = 0
KRO1 170646Z 21010KT 09/04 A2998 RMK A01 T00860042  RH  074%=      5-min Rain = 0
KRO1 170647Z 21009KT 09/04 A2998 RMK A01 T00870042  RH  073%=      5-min Rain = 0
KRO1 170648Z 21009KT 09/04 A2998 RMK A01 T00870042  RH  073%=      5-min Rain = 0
KRO1 170649Z 21010KT 09/04 A2998 RMK A01 T00870042  RH  073%=      5-min Rain = 0
KRO1 170650Z 21009KT 09/04 A2998 RMK A01 T00870042  RH  073%=      5-min Rain = 0
KRO1 170651Z 22009KT 09/04 A2998 RMK A01 T00870042  RH  073%=      5-min Rain = 0
KRO1 170652Z 21009KT 09/04 A2998 RMK A01 T00880042  RH  073%=      5-min Rain = 0
KRO1 170653Z 21009KT 09/04 A2998 RMK A01 T00880042  RH  073%=      5-min Rain = 0
KRO1 170654Z 22009KT 09/04 A2998 RMK A01 T00870042  RH  073%=      5-min Rain = 0
KRO1 170655Z 22009KT 09/04 A2998 RMK A01 T00870042  RH  073%=      5-min Rain = 0
KRO1 170656Z 22009KT 09/04 A2998 RMK A01 T00870042  RH  073%=      5-min Rain = 0
KRO1 170657Z 22009KT 09/04 A2998 RMK A01 T00870042  RH  073%=      5-min Rain = 0
KRO1 170658Z 22009KT 09/04 A2998 RMK A01 T00870042  RH  073%=      5-min Rain = 0
KRO1 170659Z 22009KT 09/04 A2998 RMK A01 T00880042  RH  073%=      5-min Rain = 0
KRO1 170700Z 22010KT 09/04 A2998 RMK A01 T00880042  RH  073%=      5-min Rain = 0
KRO1 170701Z 22009KT 09/04 A2998 RMK A01 T00890042  RH  073%=      5-min Rain = 0
KRO1 170702Z 22008KT 09/04 A2998 RMK A01 T00890042  RH  073%=      5-min Rain = 0
KRO1 170703Z 22009KT 09/04 A2998 RMK A01 T00890042  RH  073%=      5-min Rain = 0
KRO1 170704Z 22009KT 09/04 A2998 RMK A01 T00890042  RH  073%=      5-min Rain = 0
KRO1 170705Z 22008KT 09/04 A2998 RMK A01 T00890042  RH  072%=      5-min Rain = 0
KRO1 170706Z 22008KT 09/04 A2998 RMK A01 T00890042  RH  072%=      5-min Rain = 0
KRO1 170707Z 22008KT 09/04 A2998 RMK A01 T00890042  RH  072%=      5-min Rain = 0
KRO1 170708Z 22006KT 09/04 A2998 RMK A01 T00890042  RH  072%=      5-min Rain = 0
KRO1 170709Z 23008KT 09/04 A2998 RMK A01 T00890042  RH  072%=      5-min Rain = 0
KRO1 170710Z 22007KT 09/04 A2998 RMK A01 T00890042  RH  072%=      5-min Rain = 0
KRO1 170711Z 22007KT 09/04 A2998 RMK A01 T00880042  RH  073%=      5-min Rain = 0
KRO1 170712Z 22007KT 09/04 A2998 RMK A01 T00880042  RH  073%=      5-min Rain = 0
KRO1 170713Z 22007KT 09/04 A2998 RMK A01 T00880042  RH  073%=      5-min Rain = 0
KRO1 170714Z 22007KT 09/04 A2998 RMK A01 T00880042  RH  073%=      5-min Rain = 0
KRO1 170715Z 22007KT 09/04 A2998 RMK A01 T00880042  RH  073%=      5-min Rain = 0
KRO1 170716Z 22007KT 09/04 A2998 RMK A01 T00880042  RH  073%=      5-min Rain = 0
KRO1 170717Z 22006KT 09/04 A2998 RMK A01 T00880042  RH  073%=      5-min Rain = 0
KRO1 170718Z 22006KT 09/04 A2998 RMK A01 T00870041  RH  073%=      5-min Rain = 0
KRO1 170719Z 22006KT 09/04 A2998 RMK A01 T00870042  RH  073%=      5-min Rain = 0
KRO1 170720Z 22006KT 09/04 A2998 RMK A01 T00860041  RH  073%=      5-min Rain = 0
KRO1 170721Z 22007KT 09/04 A2998 RMK A01 T00860041  RH  073%=      5-min Rain = 0
KRO1 170722Z 22005KT 09/04 A2998 RMK A01 T00850041  RH  074%=      5-min Rain = 0
KRO1 170723Z 22006KT 09/04 A2998 RMK A01 T00850041  RH  074%=      5-min Rain = 0
KRO1 170724Z 23006KT 09/04 A2998 RMK A01 T00860042  RH  074%=      5-min Rain = 0
KRO1 170725Z 22006KT 09/04 A2998 RMK A01 T00850041  RH  074%=      5-min Rain = 0
KRO1 170726Z 23006KT 09/04 A2998 RMK A01 T00850041  RH  074%=      5-min Rain = 0
KRO1 170727Z 22007KT 08/04 A2998 RMK A01 T00840041  RH  074%=      5-min Rain = 0
KRO1 170728Z 22006KT 08/04 A2998 RMK A01 T00840041  RH  074%=      5-min Rain = 0
KRO1 170729Z 22007KT 08/04 A2998 RMK A01 T00840041  RH  074%=      5-min Rain = 0
KRO1 170730Z 22007KT 08/04 A2998 RMK A01 T00840041  RH  074%=      5-min Rain = 0
KRO1 170731Z 22007KT 08/04 A2998 RMK A01 T00840041  RH  074%=      5-min Rain = 0
KRO1 170732Z 22007KT 09/04 A2998 RMK A01 T00850042  RH  074%=      5-min Rain = 0
KRO1 170733Z 21007KT 09/04 A2998 RMK A01 T00850042  RH  074%=      5-min Rain = 0
KRO1 170734Z 22007KT 09/04 A2998 RMK A01 T00850042  RH  074%=      5-min Rain = 0
KRO1 170735Z 21007KT 08/04 A2998 RMK A01 T00840042  RH  075%=      5-min Rain = 0
KRO1 170736Z 21008KT 08/04 A2998 RMK A01 T00830042  RH  075%=      5-min Rain = 0
KRO1 170737Z 21007KT 08/04 A2998 RMK A01 T00840042  RH  075%=      5-min Rain = 0
KRO1 170738Z 21006KT 08/04 A2998 RMK A01 T00840042  RH  075%=      5-min Rain = 0
KRO1 170739Z 21007KT 08/04 A2998 RMK A01 T00840042  RH  075%=      5-min Rain = 0
KRO1 170740Z 21007KT 08/04 A2998 RMK A01 T00840041  RH  075%=      5-min Rain = 0
KRO1 170741Z 21007KT 08/04 A2998 RMK A01 T00840042  RH  075%=      5-min Rain = 0
KRO1 170742Z 21007KT 08/04 A2998 RMK A01 T00840042  RH  074%=      5-min Rain = 0
KRO1 170743Z 21007KT 08/04 A2998 RMK A01 T00840042  RH  075%=      5-min Rain = 0
KRO1 170744Z 21007KT 08/04 A2998 RMK A01 T00840041  RH  075%=      5-min Rain = 0
KRO1 170745Z 21007KT 08/04 A2998 RMK A01 T00840042  RH  075%=      5-min Rain = 0
KRO1 170746Z 21007KT 08/04 A2998 RMK A01 T00840042  RH  075%=      5-min Rain = 0
KRO1 170747Z 21007KT 08/04 A2998 RMK A01 T00840042  RH  075%=      5-min Rain = 0
KRO1 170748Z 20007KT 08/04 A2998 RMK A01 T00830041  RH  075%=      5-min Rain = 0
KRO1 170749Z 21007KT 08/04 A2998 RMK A01 T00830041  RH  075%=      5-min Rain = 0
KRO1 170750Z 21007KT 08/04 A2998 RMK A01 T00840042  RH  075%=      5-min Rain = 0
KRO1 170751Z 21007KT 08/04 A2998 RMK A01 T00840042  RH  075%=      5-min Rain = 0
KRO1 170752Z 21006KT 08/04 A2998 RMK A01 T00840041  RH  075%=      5-min Rain = 0
KRO1 170753Z 21006KT 08/04 A2998 RMK A01 T00830041  RH  075%=      5-min Rain = 0
KRO1 170754Z 21006KT 08/04 A2998 RMK A01 T00830041  RH  075%=      5-min Rain = 0
KRO1 170755Z 21006KT 08/04 A2998 RMK A01 T00820041  RH  075%=      5-min Rain = 0
KRO1 170756Z 21006KT 08/04 A2998 RMK A01 T00820041  RH  075%=      5-min Rain = 0
KRO1 170757Z 21006KT 08/04 A2998 RMK A01 T00820041  RH  076%=      5-min Rain = 0
KRO1 170758Z 21006KT 08/04 A2998 RMK A01 T00820041  RH  076%=      5-min Rain = 0
KRO1 170759Z 21006KT 08/04 A2998 RMK A01 T00820041  RH  075%=      5-min Rain = 0
KRO1 170800Z 21005KT 08/04 A2998 RMK A01 T00820041  RH  075%=      5-min Rain = 0
KRO1 170801Z 21006KT 08/04 A2998 RMK A01 T00820041  RH  075%=      5-min Rain = 0
KRO1 170802Z 22005KT 08/04 A2998 RMK A01 T00810041  RH  076%=      5-min Rain = 0
KRO1 170803Z 22004KT 08/04 A2998 RMK A01 T00810041  RH  076%=      5-min Rain = 0
KRO1 170804Z 23004KT 08/04 A2998 RMK A01 T00810041  RH  076%=      5-min Rain = 0
KRO1 170805Z 23003KT 08/04 A2998 RMK A01 T00800040  RH  076%=      5-min Rain = 0
KRO1 170806Z 23004KT 08/04 A2998 RMK A01 T00800040  RH  076%=      5-min Rain = 0
KRO1 170807Z 23004KT 08/04 A2998 RMK A01 T00790040  RH  076%=      5-min Rain = 0
KRO1 170808Z 23004KT 08/04 A2998 RMK A01 T00790040  RH  076%=      5-min Rain = 0
KRO1 170809Z 22005KT 08/04 A2998 RMK A01 T00790040  RH  076%=      5-min Rain = 0
KRO1 170810Z 22005KT 08/04 A2998 RMK A01 T00790040  RH  076%=      5-min Rain = 0
KRO1 170811Z 22005KT 08/04 A2998 RMK A01 T00790040  RH  076%=      5-min Rain = 0
KRO1 170812Z 22006KT 08/04 A2998 RMK A01 T00780039  RH  076%=      5-min Rain = 0
KRO1 170813Z 22006KT 08/04 A2998 RMK A01 T00780039  RH  077%=      5-min Rain = 0
KRO1 170814Z 22006KT 08/04 A2997 RMK A01 T00770039  RH  077%=      5-min Rain = 0
KRO1 170815Z 22007KT 08/04 A2997 RMK A01 T00760039  RH  077%=      5-min Rain = 0
KRO1 170816Z 22007KT 08/04 A2997 RMK A01 T00760040  RH  078%=      5-min Rain = 0
KRO1 170817Z 22007KT 08/04 A2997 RMK A01 T00760040  RH  078%=      5-min Rain = 0
KRO1 170818Z 22008KT 08/04 A2997 RMK A01 T00750040  RH  078%=      5-min Rain = 0
KRO1 170819Z 21007KT 08/04 A2997 RMK A01 T00750040  RH  078%=      5-min Rain = 0
KRO1 170820Z 21007KT 07/04 A2997 RMK A01 T00740040  RH  079%=      5-min Rain = 0
KRO1 170821Z 22007KT 07/04 A2997 RMK A01 T00740040  RH  079%=      5-min Rain = 0
KRO1 170822Z 21007KT 07/04 A2997 RMK A01 T00730040  RH  079%=      5-min Rain = 0
KRO1 170823Z 21007KT 07/04 A2997 RMK A01 T00730040  RH  079%=      5-min Rain = 0
KRO1 170824Z 22007KT 07/04 A2997 RMK A01 T00720039  RH  079%=      5-min Rain = 0
KRO1 170825Z 22007KT 07/04 A2997 RMK A01 T00710039  RH  080%=      5-min Rain = 0
KRO1 170826Z 22007KT 07/04 A2997 RMK A01 T00710039  RH  080%=      5-min Rain = 0
KRO1 170827Z 22008KT 07/04 A2997 RMK A01 T00700039  RH  080%=      5-min Rain = 0
KRO1 170828Z 22008KT 07/04 A2997 RMK A01 T00700039  RH  081%=      5-min Rain = 0
KRO1 170829Z 22008KT 07/04 A2997 RMK A01 T00700039  RH  081%=      5-min Rain = 0
KRO1 170830Z 22008KT 07/04 A2997 RMK A01 T00690039  RH  081%=      5-min Rain = 0
KRO1 170831Z 22008KT 07/04 A2997 RMK A01 T00690039  RH  081%=      5-min Rain = 0
KRO1 170832Z 22007KT 07/04 A2997 RMK A01 T00680039  RH  081%=      5-min Rain = 0
KRO1 170833Z 22007KT 07/04 A2997 RMK A01 T00680039  RH  081%=      5-min Rain = 0
KRO1 170834Z 22007KT 07/04 A2997 RMK A01 T00680039  RH  081%=      5-min Rain = 0
KRO1 170835Z 22007KT 07/04 A2997 RMK A01 T00680039  RH  082%=      5-min Rain = 0
KRO1 170836Z 22007KT 07/04 A2997 RMK A01 T00680039  RH  081%=      5-min Rain = 0
KRO1 170837Z 22006KT 07/04 A2997 RMK A01 T00680039  RH  081%=      5-min Rain = 0
KRO1 170838Z 22006KT 07/04 A2997 RMK A01 T00680039  RH  081%=      5-min Rain = 0
KRO1 170839Z 22006KT 07/04 A2997 RMK A01 T00680039  RH  081%=      5-min Rain = 0
KRO1 170840Z 22006KT 07/04 A2997 RMK A01 T00680039  RH  082%=      5-min Rain = 0
KRO1 170841Z 22006KT 07/04 A2997 RMK A01 T00680039  RH  081%=      5-min Rain = 0
KRO1 170842Z 22006KT 07/04 A2997 RMK A01 T00690039  RH  081%=      5-min Rain = 0
KRO1 170843Z 22005KT 07/04 A2997 RMK A01 T00680039  RH  081%=      5-min Rain = 0
KRO1 170844Z 22005KT 07/04 A2997 RMK A01 T00680039  RH  081%=      5-min Rain = 0
KRO1 170845Z 22005KT 07/04 A2997 RMK A01 T00680039  RH  081%=      5-min Rain = 0
KRO1 170846Z 21005KT 07/04 A2997 RMK A01 T00680039  RH  082%=      5-min Rain = 0
KRO1 170847Z 22005KT 07/04 A2997 RMK A01 T00680039  RH  082%=      5-min Rain = 0
KRO1 170848Z 22004KT 07/04 A2997 RMK A01 T00680039  RH  082%=      5-min Rain = 0
KRO1 170849Z 22004KT 07/04 A2997 RMK A01 T00670038  RH  082%=      5-min Rain = 0
KRO1 170850Z 23004KT 07/04 A2997 RMK A01 T00670039  RH  082%=      5-min Rain = 0
KRO1 170851Z 23003KT 07/04 A2997 RMK A01 T00670039  RH  082%=      5-min Rain = 0
KRO1 170852Z 24004KT 07/04 A2997 RMK A01 T00670038  RH  082%=      5-min Rain = 0
KRO1 170853Z 23004KT 07/04 A2997 RMK A01 T00670038  RH  082%=      5-min Rain = 0
KRO1 170854Z 24004KT 07/04 A2997 RMK A01 T00670038  RH  082%=      5-min Rain = 0
KRO1 170855Z 24004KT 07/04 A2997 RMK A01 T00660038  RH  082%=      5-min Rain = 0
KRO1 170856Z 24004KT 07/04 A2997 RMK A01 T00660038  RH  082%=      5-min Rain = 0
KRO1 170857Z 24005KT 07/04 A2997 RMK A01 T00660038  RH  082%=      5-min Rain = 0
KRO1 170858Z 24005KT 07/04 A2997 RMK A01 T00660038  RH  082%=      5-min Rain = 0
KRO1 170859Z 24005KT 07/04 A2997 RMK A01 T00660038  RH  082%=      5-min Rain = 0
KRO1 170900Z 24005KT 07/04 A2997 RMK A01 T00660038  RH  082%=      5-min Rain = 0
KRO1 170901Z 24005KT 07/04 A2997 RMK A01 T00660037  RH  082%=      5-min Rain = 0
KRO1 170902Z 24005KT 07/04 A2997 RMK A01 T00650037  RH  082%=      5-min Rain = 0
KRO1 170903Z 23005KT 07/04 A2997 RMK A01 T00650038  RH  082%=      5-min Rain = 0
KRO1 170904Z 23005KT 07/04 A2997 RMK A01 T00650037  RH  083%=      5-min Rain = 0
KRO1 170905Z 23005KT 07/04 A2997 RMK A01 T00660038  RH  082%=      5-min Rain = 0
KRO1 170906Z 22005KT 07/04 A2997 RMK A01 T00650037  RH  082%=      5-min Rain = 0
KRO1 170907Z 22005KT 07/04 A2997 RMK A01 T00650037  RH  082%=      5-min Rain = 0
KRO1 170908Z 22005KT 07/04 A2997 RMK A01 T00650037  RH  082%=      5-min Rain = 0
KRO1 170909Z 23005KT 06/04 A2997 RMK A01 T00640037  RH  083%=      5-min Rain = 0
KRO1 170910Z 23005KT 06/04 A2997 RMK A01 T00630036  RH  083%=      5-min Rain = 0
KRO1 170911Z 23005KT 06/04 A2997 RMK A01 T00630036  RH  083%=      5-min Rain = 0
KRO1 170912Z 23005KT 06/04 A2997 RMK A01 T00620036  RH  084%=      5-min Rain = 0
KRO1 170913Z 22005KT 06/04 A2997 RMK A01 T00610036  RH  084%=      5-min Rain = 0
KRO1 170914Z 22005KT 06/04 A2997 RMK A01 T00610036  RH  084%=      5-min Rain = 0
KRO1 170915Z 22005KT 06/04 A2997 RMK A01 T00610036  RH  084%=      5-min Rain = 0
KRO1 170916Z 22005KT 06/04 A2997 RMK A01 T00610035  RH  084%=      5-min Rain = 0
KRO1 170917Z 22005KT 06/04 A2997 RMK A01 T00600035  RH  084%=      5-min Rain = 0
KRO1 170918Z 21005KT 06/04 A2997 RMK A01 T00600035  RH  084%=      5-min Rain = 0
KRO1 170919Z 21005KT 06/03 A2997 RMK A01 T00590034  RH  084%=      5-min Rain = 0
KRO1 170920Z 21005KT 06/03 A2997 RMK A01 T00580034  RH  085%=      5-min Rain = 0
KRO1 170921Z 21005KT 06/03 A2997 RMK A01 T00570034  RH  085%=      5-min Rain = 0
KRO1 170922Z 22004KT 06/03 A2997 RMK A01 T00570034  RH  085%=      5-min Rain = 0
KRO1 170923Z 22004KT 06/03 A2997 RMK A01 T00560033  RH  085%=      5-min Rain = 0
KRO1 170924Z 22004KT 06/03 A2997 RMK A01 T00550033  RH  086%=      5-min Rain = 0
KRO1 170925Z 22004KT 06/03 A2997 RMK A01 T00560034  RH  086%=      5-min Rain = 0
KRO1 170926Z 22004KT 06/04 A2997 RMK A01 T00560035  RH  086%=      5-min Rain = 0
KRO1 170927Z 22004KT 06/04 A2997 RMK A01 T00550035  RH  086%=      5-min Rain = 0
KRO1 170928Z 21004KT 06/04 A2996 RMK A01 T00560035  RH  087%=      5-min Rain = 0
KRO1 170929Z 21004KT 06/04 A2996 RMK A01 T00570036  RH  087%=      5-min Rain = 0
KRO1 170930Z 21004KT 06/04 A2996 RMK A01 T00580036  RH  086%=      5-min Rain = 0
KRO1 170931Z 21004KT 06/04 A2996 RMK A01 T00580036  RH  085%=      5-min Rain = 0
KRO1 170932Z 22004KT 06/04 A2997 RMK A01 T00580035  RH  085%=      5-min Rain = 0
KRO1 170933Z 23004KT 06/04 A2997 RMK A01 T00580036  RH  085%=      5-min Rain = 0
KRO1 170934Z 23003KT 06/04 A2997 RMK A01 T00580035  RH  085%=      5-min Rain = 0
KRO1 170935Z 23003KT 06/04 A2997 RMK A01 T00580035  RH  085%=      5-min Rain = 0
KRO1 170936Z 23003KT 06/04 A2997 RMK A01 T00570035  RH  085%=      5-min Rain = 0
KRO1 170937Z 23004KT 06/04 A2997 RMK A01 T00580035  RH  086%=      5-min Rain = 0
KRO1 170938Z 22004KT 06/04 A2997 RMK A01 T00580036  RH  086%=      5-min Rain = 0
KRO1 170939Z 22004KT 06/04 A2996 RMK A01 T00580036  RH  086%=      5-min Rain = 0
KRO1 170940Z 22004KT 06/04 A2996 RMK A01 T00590037  RH  086%=      5-min Rain = 0
KRO1 170941Z 23003KT 06/04 A2997 RMK A01 T00600038  RH  086%=      5-min Rain = 0
KRO1 170942Z 23003KT 06/04 A2997 RMK A01 T00600038  RH  085%=      5-min Rain = 0
KRO1 170943Z 24003KT 06/04 A2997 RMK A01 T00610037  RH  085%=      5-min Rain = 0
KRO1 170944Z 24003KT 06/04 A2997 RMK A01 T00610036  RH  084%=      5-min Rain = 0
KRO1 170945Z 23003KT 06/04 A2997 RMK A01 T00610037  RH  084%=      5-min Rain = 0
KRO1 170946Z 23004KT 06/04 A2997 RMK A01 T00610036  RH  084%=      5-min Rain = 0
KRO1 170947Z 24004KT 06/04 A2997 RMK A01 T00610036  RH  084%=      5-min Rain = 0
KRO1 170948Z 24004KT 06/04 A2997 RMK A01 T00600036  RH  084%=      5-min Rain = 0
KRO1 170949Z 25004KT 06/04 A2997 RMK A01 T00600035  RH  084%=      5-min Rain = 0
KRO1 170950Z 25004KT 06/03 A2998 RMK A01 T00600033  RH  083%=      5-min Rain = 0
KRO1 170951Z 25005KT 06/03 A2998 RMK A01 T00580032  RH  083%=      5-min Rain = 0
KRO1 170952Z 25005KT 06/03 A2998 RMK A01 T00570031  RH  084%=      5-min Rain = 0
KRO1 170953Z 25006KT 06/03 A2998 RMK A01 T00560031  RH  084%=      5-min Rain = 0
KRO1 170954Z 25006KT 06/03 A2998 RMK A01 T00550032  RH  085%=      5-min Rain = 0
KRO1 170955Z 25006KT 06/03 A2998 RMK A01 T00560033  RH  086%=      5-min Rain = 0
KRO1 170956Z 24007KT 06/03 A2998 RMK A01 T00560034  RH  086%=      5-min Rain = 0
KRO1 170957Z 25007KT 06/04 A2998 RMK A01 T00570035  RH  086%=      5-min Rain = 0
KRO1 170958Z 25007KT 06/04 A2998 RMK A01 T00570035  RH  086%=      5-min Rain = 0
KRO1 170959Z 25007KT 06/04 A2998 RMK A01 T00580036  RH  086%=      5-min Rain = 0
KRO1 171000Z 25007KT 06/04 A2998 RMK A01 T00570036  RH  086%=      5-min Rain = 0
KRO1 171001Z 25006KT 06/04 A2998 RMK A01 T00570036  RH  086%=      5-min Rain = 0
KRO1 171002Z 25006KT 06/04 A2998 RMK A01 T00570036  RH  086%=      5-min Rain = 0
KRO1 171003Z 25006KT 06/04 A2997 RMK A01 T00580036  RH  086%=      5-min Rain = 0
KRO1 171004Z 25006KT 06/04 A2997 RMK A01 T00580036  RH  086%=      5-min Rain = 0
KRO1 171005Z 25005KT 06/04 A2997 RMK A01 T00580036  RH  086%=      5-min Rain = 0
KRO1 171006Z 24005KT 06/04 A2997 RMK A01 T00590037  RH  086%=      5-min Rain = 0
KRO1 171007Z 24005KT 06/04 A2997 RMK A01 T00590037  RH  086%=      5-min Rain = 0
KRO1 171008Z 24005KT 06/04 A2997 RMK A01 T00590037  RH  086%=      5-min Rain = 0
KRO1 171009Z 23005KT 06/04 A2997 RMK A01 T00590037  RH  085%=      5-min Rain = 0
KRO1 171010Z 24005KT 06/04 A2997 RMK A01 T00590036  RH  085%=      5-min Rain = 0
KRO1 171011Z 24005KT 06/04 A2997 RMK A01 T00590035  RH  085%=      5-min Rain = 0
KRO1 171012Z 24005KT 06/04 A2997 RMK A01 T00580035  RH  085%=      5-min Rain = 0
KRO1 171013Z 25005KT 06/04 A2998 RMK A01 T00580035  RH  085%=      5-min Rain = 0
KRO1 171014Z 25005KT 06/04 A2998 RMK A01 T00570035  RH  086%=      5-min Rain = 0
KRO1 171015Z 26005KT 06/04 A2998 RMK A01 T00570035  RH  085%=      5-min Rain = 0
KRO1 171016Z 27005KT 06/03 A2998 RMK A01 T00570034  RH  085%=      5-min Rain = 0
KRO1 171017Z 27005KT 06/04 A2998 RMK A01 T00570035  RH  086%=      5-min Rain = 0
KRO1 171018Z 27005KT 06/04 A2998 RMK A01 T00580036  RH  086%=      5-min Rain = 0
KRO1 171019Z 28005KT 06/04 A2998 RMK A01 T00600038  RH  086%=      5-min Rain = 0
KRO1 171020Z 28006KT 06/04 A2998 RMK A01 T00600038  RH  086%=      5-min Rain = 0
KRO1 171021Z 29006KT 06/04 A2998 RMK A01 T00610038  RH  085%=      5-min Rain = 0
KRO1 171022Z 28007KT 06/04 A2998 RMK A01 T00610038  RH  085%=      5-min Rain = 0
KRO1 171023Z 28007KT 06/04 A2998 RMK A01 T00610038  RH  085%=      5-min Rain = 0
KRO1 171024Z 29007KT 06/04 A2998 RMK A01 T00600037  RH  085%=      5-min Rain = 0
KRO1 171025Z 28007KT 06/04 A2999 RMK A01 T00610038  RH  085%=      5-min Rain = 0
KRO1 171026Z 28007KT 06/04 A2999 RMK A01 T00610038  RH  085%=      5-min Rain = 0
KRO1 171027Z 28006KT 06/04 A2999 RMK A01 T00610038  RH  085%=      5-min Rain = 0
KRO1 171028Z 29006KT 06/04 A2999 RMK A01 T00620038  RH  085%=      5-min Rain = 0
KRO1 171029Z 29005KT 06/04 A2999 RMK A01 T00620038  RH  085%=      5-min Rain = 0
KRO1 171030Z 30005KT 06/04 A2999 RMK A01 T00620038  RH  085%=      5-min Rain = 0
KRO1 171031Z 30005KT 06/04 A2999 RMK A01 T00620038  RH  085%=      5-min Rain = 0
KRO1 171032Z 30005KT 06/04 A2999 RMK A01 T00610037  RH  085%=      5-min Rain = 0
KRO1 171033Z 29005KT 06/04 A2999 RMK A01 T00600036  RH  085%=      5-min Rain = 0
KRO1 171034Z 29005KT 06/04 A2999 RMK A01 T00580035  RH  085%=      5-min Rain = 0
KRO1 171035Z 28004KT 06/04 A2999 RMK A01 T00570035  RH  085%=      5-min Rain = 0
KRO1 171036Z 28005KT 06/04 A2998 RMK A01 T00570036  RH  086%=      5-min Rain = 0
KRO1 171037Z 28005KT 06/04 A2998 RMK A01 T00560035  RH  086%=      5-min Rain = 0
KRO1 171038Z 29005KT 06/04 A2998 RMK A01 T00560035  RH  086%=      5-min Rain = 0
KRO1 171039Z 29005KT 06/04 A2998 RMK A01 T00570036  RH  086%=      5-min Rain = 0
KRO1 171040Z 29005KT 06/04 A2998 RMK A01 T00560035  RH  086%=      5-min Rain = 0
KRO1 171041Z 30005KT 06/03 A2998 RMK A01 T00560034  RH  086%=      5-min Rain = 0
KRO1 171042Z 30006KT 06/03 A2998 RMK A01 T00550034  RH  086%=      5-min Rain = 0
KRO1 171043Z 30006KT 06/04 A2999 RMK A01 T00550035  RH  087%=      5-min Rain = 0
KRO1 171044Z 31007KT 05/04 A2999 RMK A01 T00540035  RH  087%=      5-min Rain = 0
KRO1 171045Z 31007KT 06/04 A2999 RMK A01 T00550036  RH  088%=      5-min Rain = 0
KRO1 171046Z 31006KT 06/04 A2999 RMK A01 T00560037  RH  088%=      5-min Rain = 0
KRO1 171047Z 31006KT 06/04 A2999 RMK A01 T00570037  RH  087%=      5-min Rain = 0
KRO1 171048Z 31006KT 06/04 A2999 RMK A01 T00580037  RH  087%=      5-min Rain = 0
KRO1 171049Z 31006KT 06/04 A2998 RMK A01 T00580037  RH  086%=      5-min Rain = 0
KRO1 171050Z 31005KT 06/04 A2998 RMK A01 T00580037  RH  086%=      5-min Rain = 0
KRO1 171051Z 30005KT 06/04 A2998 RMK A01 T00580037  RH  086%=      5-min Rain = 0
KRO1 171052Z 30005KT 06/04 A2998 RMK A01 T00580036  RH  086%=      5-min Rain = 0
KRO1 171053Z 29005KT 06/04 A2998 RMK A01 T00580036  RH  086%=      5-min Rain = 0
KRO1 171054Z 29005KT 06/04 A2998 RMK A01 T00590037  RH  086%=      5-min Rain = 0
KRO1 171055Z 29005KT 06/04 A2998 RMK A01 T00580035  RH  086%=      5-min Rain = 0
KRO1 171056Z 29005KT 06/03 A2998 RMK A01 T00570034  RH  085%=      5-min Rain = 0
KRO1 171057Z 30006KT 06/03 A2999 RMK A01 T00550033  RH  086%=      5-min Rain = 0
KRO1 171058Z 30006KT 05/03 A2999 RMK A01 T00530032  RH  086%=      5-min Rain = 0
KRO1 171059Z 31006KT 05/03 A2999 RMK A01 T00530033  RH  087%=      5-min Rain = 0
KRO1 171100Z 31007KT 05/03 A2999 RMK A01 T00520033  RH  088%=      5-min Rain = 0
KRO1 171101Z 32007KT 05/03 A30 RMK A01 T00530034  RH  088%=      5-min Rain = 0
KRO1 171102Z 32007KT 05/04 A30 RMK A01 T00540035  RH  088%=      5-min Rain = 0
KRO1 171103Z 33008KT 06/04 A30 RMK A01 T00550036  RH  088%=      5-min Rain = 0
KRO1 171104Z 33008KT 06/04 A30 RMK A01 T00560037  RH  088%=      5-min Rain = 0
KRO1 171105Z 33009KT 06/04 A30 RMK A01 T00570038  RH  087%=      5-min Rain = 0
KRO1 171106Z 33009KT 06/04 A30 RMK A01 T00580037  RH  087%=      5-min Rain = 0
KRO1 171107Z 33008KT 06/04 A30 RMK A01 T00580037  RH  086%=      5-min Rain = 0
KRO1 171108Z 33007KT 06/04 A30 RMK A01 T00590038  RH  086%=      5-min Rain = 0
KRO1 171109Z 32006KT 06/04 A30 RMK A01 T00600038  RH  086%=      5-min Rain = 0
KRO1 171110Z 32006KT 06/04 A30 RMK A01 T00600037  RH  085%=      5-min Rain = 0
KRO1 171111Z 32006KT 06/04 A30 RMK A01 T00590036  RH  085%=      5-min Rain = 0
KRO1 171112Z 32005KT 06/04 A30 RMK A01 T00580036  RH  086%=      5-min Rain = 0
KRO1 171113Z 32005KT 06/04 A30 RMK A01 T00570035  RH  086%=      5-min Rain = 0
KRO1 171114Z 31005KT 06/03 A30 RMK A01 T00560034  RH  086%=      5-min Rain = 0
KRO1 171115Z 31004KT 06/03 A30 RMK A01 T00550033  RH  086%=      5-min Rain = 0
KRO1 171116Z 31004KT 05/03 A30 RMK A01 T00540033  RH  086%=      5-min Rain = 0
KRO1 171117Z 31005KT 05/03 A30 RMK A01 T00520032  RH  087%=      5-min Rain = 0
KRO1 171118Z 31005KT 05/03 A30 RMK A01 T00510031  RH  087%=      5-min Rain = 0
KRO1 171119Z 31005KT 05/03 A30 RMK A01 T00500030  RH  087%=      5-min Rain = 0
KRO1 171120Z 31006KT 05/03 A30 RMK A01 T00480030  RH  088%=      5-min Rain = 0
KRO1 171121Z 31007KT 05/03 A30 RMK A01 T00470030  RH  088%=      5-min Rain = 0
KRO1 171122Z 31007KT 05/03 A30 RMK A01 T00470031  RH  089%=      5-min Rain = 0
KRO1 171123Z 31006KT 05/03 A30 RMK A01 T00470032  RH  090%=      5-min Rain = 0
KRO1 171124Z 31006KT 05/03 A30 RMK A01 T00480033  RH  090%=      5-min Rain = 0
KRO1 171125Z 31005KT 05/03 A30 RMK A01 T00490034  RH  090%=      5-min Rain = 0
KRO1 171126Z 31005KT 05/03 A3001 RMK A01 T00490033  RH  090%=      5-min Rain = 0
KRO1 171127Z 31005KT 05/03 A3001 RMK A01 T00500034  RH  089%=      5-min Rain = 0
KRO1 171128Z 31005KT 05/03 A3001 RMK A01 T00500033  RH  089%=      5-min Rain = 0
KRO1 171129Z 31005KT 05/03 A3001 RMK A01 T00500033  RH  089%=      5-min Rain = 0
KRO1 171130Z 30004KT 05/03 A3001 RMK A01 T00500033  RH  089%=      5-min Rain = 0
KRO1 171131Z 30004KT 05/03 A3001 RMK A01 T00500033  RH  089%=      5-min Rain = 0
KRO1 171132Z 30004KT 05/03 A3001 RMK A01 T00500033  RH  089%=      5-min Rain = 0
KRO1 171133Z 30004KT 05/03 A3001 RMK A01 T00500033  RH  089%=      5-min Rain = 0
KRO1 171134Z 30005KT 05/03 A3001 RMK A01 T00500033  RH  089%=      5-min Rain = 0
KRO1 171135Z 30005KT 05/03 A3001 RMK A01 T00500032  RH  089%=      5-min Rain = 0
KRO1 171136Z 30005KT 05/03 A3002 RMK A01 T00490032  RH  089%=      5-min Rain = 0
KRO1 171137Z 30005KT 05/03 A3002 RMK A01 T00480030  RH  089%=      5-min Rain = 0
KRO1 171138Z 30005KT 05/03 A3002 RMK A01 T00470030  RH  089%=      5-min Rain = 0
KRO1 171139Z 29005KT 05/03 A3002 RMK A01 T00460029  RH  089%=      5-min Rain = 0
KRO1 171140Z 29006KT 05/03 A3002 RMK A01 T00450030  RH  090%=      5-min Rain = 0
KRO1 171141Z 29006KT 05/03 A3002 RMK A01 T00460030  RH  090%=      5-min Rain = 0
KRO1 171142Z 29005KT 05/03 A3002 RMK A01 T00460030  RH  090%=      5-min Rain = 0
KRO1 171143Z 29005KT 05/03 A3002 RMK A01 T00450029  RH  089%=      5-min Rain = 0
KRO1 171144Z 28005KT 04/03 A3002 RMK A01 T00440028  RH  089%=      5-min Rain = 0
KRO1 171145Z 28005KT 04/03 A3002 RMK A01 T00430027  RH  089%=      5-min Rain = 0
KRO1 171146Z 28006KT 04/03 A3002 RMK A01 T00420026  RH  089%=      5-min Rain = 0
KRO1 171147Z 28006KT 04/03 A3003 RMK A01 T00410026  RH  090%=      5-min Rain = 0
KRO1 171148Z 28006KT 04/03 A3003 RMK A01 T00410028  RH  091%=      5-min Rain = 0
KRO1 171149Z 28006KT 04/03 A3003 RMK A01 T00410028  RH  091%=      5-min Rain = 0
KRO1 171150Z 27005KT 04/03 A3003 RMK A01 T00420029  RH  091%=      5-min Rain = 0
KRO1 171151Z 27006KT 04/03 A3003 RMK A01 T00430030  RH  091%=      5-min Rain = 0
KRO1 171152Z 27007KT 04/03 A3003 RMK A01 T00430030  RH  091%=      5-min Rain = 0
KRO1 171153Z 27006KT 04/03 A3003 RMK A01 T00440031  RH  091%=      5-min Rain = 0
KRO1 171154Z 27006KT 04/03 A3003 RMK A01 T00440030  RH  091%=      5-min Rain = 0
KRO1 171155Z 27006KT 04/03 A3003 RMK A01 T00440030  RH  091%=      5-min Rain = 0
KRO1 171156Z 26006KT 05/03 A3003 RMK A01 T00450032  RH  091%=      5-min Rain = 0
KRO1 171157Z 26007KT 05/03 A3003 RMK A01 T00450032  RH  091%=      5-min Rain = 0
KRO1 171158Z 26007KT 05/03 A3003 RMK A01 T00450032  RH  091%=      5-min Rain = 0
KRO1 171159Z 27007KT 05/03 A3003 RMK A01 T00450031  RH  091%=      5-min Rain = 0
KRO1 171200Z 27007KT 05/03 A3003 RMK A01 T00450031  RH  091%=      5-min Rain = 0
KRO1 171201Z 27007KT 05/03 A3003 RMK A01 T00450031  RH  091%=      5-min Rain = 0
KRO1 171202Z 27007KT 05/03 A3003 RMK A01 T00460031  RH  091%=      5-min Rain = 0
KRO1 171203Z 27007KT 05/03 A3004 RMK A01 T00460031  RH  090%=      5-min Rain = 0
KRO1 171204Z 27006KT 05/03 A3004 RMK A01 T00460031  RH  090%=      5-min Rain = 0
KRO1 171205Z 27006KT 05/03 A3004 RMK A01 T00470031  RH  090%=      5-min Rain = 0
KRO1 171206Z 27007KT 05/03 A3004 RMK A01 T00460031  RH  090%=      5-min Rain = 0
KRO1 171207Z 27006KT 05/03 A3004 RMK A01 T00470031  RH  090%=      5-min Rain = 0
KRO1 171208Z 27007KT 05/03 A3004 RMK A01 T00460031  RH  090%=      5-min Rain = 0
KRO1 171209Z 27006KT 05/03 A3003 RMK A01 T00460032  RH  090%=      5-min Rain = 0
KRO1 171210Z 26006KT 05/03 A3003 RMK A01 T00460031  RH  090%=      5-min Rain = 0
KRO1 171211Z 26007KT 05/03 A3003 RMK A01 T00470031  RH  090%=      5-min Rain = 0
KRO1 171212Z 26007KT 05/03 A3004 RMK A01 T00460031  RH  090%=      5-min Rain = 0
KRO1 171213Z 27007KT 05/03 A3004 RMK A01 T00460031  RH  090%=      5-min Rain = 0
KRO1 171214Z 27007KT 05/03 A3004 RMK A01 T00460031  RH  090%=      5-min Rain = 0
KRO1 171215Z 26007KT 05/03 A3004 RMK A01 T00450031  RH  090%=      5-min Rain = 0
KRO1 171216Z 26007KT 05/03 A3004 RMK A01 T00450031  RH  090%=      5-min Rain = 0
KRO1 171217Z 26007KT 05/03 A3004 RMK A01 T00450031  RH  091%=      5-min Rain = 0
KRO1 171218Z 26007KT 05/03 A3004 RMK A01 T00450032  RH  091%=      5-min Rain = 0
KRO1 171219Z 25007KT 05/03 A3003 RMK A01 T00460032  RH  091%=      5-min Rain = 0
KRO1 171220Z 25007KT 05/03 A3003 RMK A01 T00460032  RH  091%=      5-min Rain = 0
KRO1 171221Z 26008KT 05/03 A3004 RMK A01 T00460032  RH  090%=      5-min Rain = 0
KRO1 171222Z 26008KT 05/03 A3004 RMK A01 T00460032  RH  090%=      5-min Rain = 0
KRO1 171223Z 27008KT 05/03 A3004 RMK A01 T00470032  RH  090%=      5-min Rain = 0
KRO1 171224Z 27008KT 05/03 A3004 RMK A01 T00470032  RH  090%=      5-min Rain = 0
KRO1 171225Z 27008KT 05/03 A3004 RMK A01 T00470033  RH  090%=      5-min Rain = 0
KRO1 171226Z 27008KT 05/03 A3004 RMK A01 T00480033  RH  090%=      5-min Rain = 0
KRO1 171227Z 27008KT 05/03 A3004 RMK A01 T00480033  RH  090%=      5-min Rain = 0
KRO1 171228Z 27008KT 05/03 A3005 RMK A01 T00490033  RH  090%=      5-min Rain = 0
KRO1 171229Z 27007KT 05/03 A3005 RMK A01 T00490034  RH  090%=      5-min Rain = 0
KRO1 171230Z 27007KT 05/03 A3005 RMK A01 T00490034  RH  090%=      5-min Rain = 0
KRO1 171231Z 27007KT 05/03 A3005 RMK A01 T00500034  RH  090%=      5-min Rain = 0
KRO1 171232Z 27007KT 05/03 A3005 RMK A01 T00500034  RH  089%=      5-min Rain = 0
KRO1 171233Z 27007KT 05/03 A3005 RMK A01 T00500033  RH  089%=      5-min Rain = 0
KRO1 171234Z 28008KT 05/03 A3005 RMK A01 T00500033  RH  089%=      5-min Rain = 0
KRO1 171235Z 28008KT 05/03 A3005 RMK A01 T00500034  RH  089%=      5-min Rain = 0
KRO1 171236Z 28007KT 05/03 A3005 RMK A01 T00500034  RH  089%=      5-min Rain = 0
KRO1 171237Z 27007KT 05/03 A3005 RMK A01 T00500033  RH  089%=      5-min Rain = 0
KRO1 171238Z 28007KT 05/03 A3005 RMK A01 T00500034  RH  089%=      5-min Rain = 0
KRO1 171239Z 28008KT 05/03 A3005 RMK A01 T00500033  RH  089%=      5-min Rain = 0
KRO1 171240Z 28007KT 05/03 A3005 RMK A01 T00500033  RH  089%=      5-min Rain = 0
KRO1 171241Z 28007KT 05/03 A3005 RMK A01 T00500033  RH  089%=      5-min Rain = 0
KRO1 171242Z 28008KT 05/03 A3005 RMK A01 T00500034  RH  089%=      5-min Rain = 0
KRO1 171243Z 28008KT 05/03 A3005 RMK A01 T00510034  RH  089%=      5-min Rain = 0
KRO1 171244Z 29008KT 05/03 A3005 RMK A01 T00510034  RH  089%=      5-min Rain = 0
KRO1 171245Z 29008KT 05/03 A3005 RMK A01 T00510033  RH  089%=      5-min Rain = 0
KRO1 171246Z 29008KT 05/03 A3005 RMK A01 T00500033  RH  089%=      5-min Rain = 0
KRO1 171247Z 28007KT 05/03 A3005 RMK A01 T00490032  RH  089%=      5-min Rain = 0
KRO1 171248Z 29006KT 05/03 A3005 RMK A01 T00490033  RH  089%=      5-min Rain = 0
KRO1 171249Z 29007KT 05/03 A3005 RMK A01 T00490033  RH  089%=      5-min Rain = 0
KRO1 171250Z 29007KT 05/03 A3005 RMK A01 T00490033  RH  089%=      5-min Rain = 0
KRO1 171251Z 29007KT 05/03 A3005 RMK A01 T00490033  RH  089%=      5-min Rain = 0
KRO1 171252Z 29007KT 05/03 A3005 RMK A01 T00480032  RH  089%=      5-min Rain = 0
KRO1 171253Z 29007KT 05/03 A3005 RMK A01 T00480032  RH  090%=      5-min Rain = 0
KRO1 171254Z 30007KT 05/03 A3005 RMK A01 T00480032  RH  090%=      5-min Rain = 0
KRO1 171255Z 30007KT 05/03 A3005 RMK A01 T00470032  RH  090%=      5-min Rain = 0
KRO1 171256Z 30007KT 05/03 A3005 RMK A01 T00470032  RH  090%=      5-min Rain = 0
KRO1 171257Z 30008KT 05/03 A3005 RMK A01 T00470032  RH  090%=      5-min Rain = 0
KRO1 171258Z 30008KT 05/03 A3005 RMK A01 T00480033  RH  090%=      5-min Rain = 0
KRO1 171259Z 31008KT 05/03 A3005 RMK A01 T00480033  RH  090%=      5-min Rain = 0
KRO1 171300Z 31008KT 05/03 A3005 RMK A01 T00490033  RH  089%=      5-min Rain = 0
KRO1 171301Z 31008KT 05/03 A3005 RMK A01 T00500033  RH  089%=      5-min Rain = 0
KRO1 171302Z 31008KT 05/03 A3006 RMK A01 T00500033  RH  089%=      5-min Rain = 0
KRO1 171303Z 30009KT 05/03 A3006 RMK A01 T00510034  RH  089%=      5-min Rain = 0
KRO1 171304Z 31008KT 05/03 A3006 RMK A01 T00510033  RH  088%=      5-min Rain = 0
KRO1 171305Z 30008KT 05/03 A3006 RMK A01 T00510033  RH  088%=      5-min Rain = 0
KRO1 171306Z 31008KT 05/03 A3006 RMK A01 T00510033  RH  088%=      5-min Rain = 0
KRO1 171307Z 31009KT 05/03 A3006 RMK A01 T00510033  RH  088%=      5-min Rain = 0
KRO1 171308Z 31008KT 05/03 A3006 RMK A01 T00510033  RH  088%=      5-min Rain = 0
KRO1 171309Z 31008KT 05/03 A3006 RMK A01 T00510033  RH  088%=      5-min Rain = 0
KRO1 171310Z 31007KT 05/03 A3006 RMK A01 T00500033  RH  088%=      5-min Rain = 0
KRO1 171311Z 31007KT 05/03 A3006 RMK A01 T00500033  RH  088%=      5-min Rain = 0
KRO1 171312Z 31008KT 05/03 A3006 RMK A01 T00500033  RH  088%=      5-min Rain = 0
KRO1 171313Z 32008KT 05/03 A3006 RMK A01 T00510033  RH  088%=      5-min Rain = 0
KRO1 171314Z 32008KT 05/03 A3006 RMK A01 T00530034  RH  088%=      5-min Rain = 0
KRO1 171315Z 32008KT 06/03 A3006 RMK A01 T00550034  RH  087%=      5-min Rain = 0
KRO1 171316Z 32008KT 06/03 A3006 RMK A01 T00570034  RH  086%=      5-min Rain = 0
KRO1 171317Z 32008KT 06/03 A3006 RMK A01 T00570034  RH  085%=      5-min Rain = 0
KRO1 171318Z 32008KT 06/03 A3006 RMK A01 T00570033  RH  085%=      5-min Rain = 0
KRO1 171319Z 33008KT 06/03 A3006 RMK A01 T00570033  RH  085%=      5-min Rain = 0
KRO1 171320Z 33008KT 06/03 A3006 RMK A01 T00580033  RH  084%=      5-min Rain = 0
KRO1 171321Z 33008KT 06/03 A3007 RMK A01 T00590034  RH  084%=      5-min Rain = 0
KRO1 171322Z 33008KT 06/03 A3007 RMK A01 T00600033  RH  083%=      5-min Rain = 0
KRO1 171323Z 33008KT 06/03 A3007 RMK A01 T00600033  RH  083%=      5-min Rain = 0
KRO1 171324Z 34008KT 06/03 A3007 RMK A01 T00600033  RH  082%=      5-min Rain = 0
KRO1 171325Z 34008KT 06/03 A3007 RMK A01 T00610033  RH  082%=      5-min Rain = 0
KRO1 171326Z 33008KT 06/03 A3007 RMK A01 T00610033  RH  082%=      5-min Rain = 0
KRO1 171327Z 33007KT 06/03 A3007 RMK A01 T00620033  RH  082%=      5-min Rain = 0
KRO1 171328Z 34007KT 06/03 A3007 RMK A01 T00610033  RH  082%=      5-min Rain = 0
KRO1 171329Z 34007KT 06/03 A3007 RMK A01 T00610033  RH  082%=      5-min Rain = 0
KRO1 171330Z 34008KT 06/03 A3007 RMK A01 T00610032  RH  082%=      5-min Rain = 0
KRO1 171331Z 34007KT 06/03 A3007 RMK A01 T00620032  RH  082%=      5-min Rain = 0
KRO1 171332Z 33008KT 06/03 A3007 RMK A01 T00610032  RH  081%=      5-min Rain = 0
KRO1 171333Z 34008KT 06/03 A3007 RMK A01 T00620032  RH  081%=      5-min Rain = 0
KRO1 171334Z 33008KT 06/03 A3007 RMK A01 T00620032  RH  081%=      5-min Rain = 0
KRO1 171335Z 34007KT 06/03 A3007 RMK A01 T00620032  RH  081%=      5-min Rain = 0
KRO1 171336Z 34008KT 06/03 A3008 RMK A01 T00630032  RH  081%=      5-min Rain = 0
KRO1 171337Z 34008KT 06/03 A3008 RMK A01 T00630032  RH  081%=      5-min Rain = 0
KRO1 171338Z 34008KT 06/03 A3008 RMK A01 T00640032  RH  080%=      5-min Rain = 0
KRO1 171339Z 35008KT 07/03 A3008 RMK A01 T00650032  RH  080%=      5-min Rain = 0
KRO1 171340Z 34010KT 07/03 A3008 RMK A01 T00650032  RH  079%=      5-min Rain = 0
KRO1 171341Z 35009KT 07/03 A3008 RMK A01 T00670031  RH  078%=      5-min Rain = 0
KRO1 171342Z 35009KT 07/03 A3008 RMK A01 T00680031  RH  078%=      5-min Rain = 0
KRO1 171343Z 35011KT 07/03 A3008 RMK A01 T00680031  RH  077%=      5-min Rain = 0
KRO1 171344Z 34009KT 07/03 A3008 RMK A01 T00690030  RH  076%=      5-min Rain = 0
KRO1 171345Z 34010KT 07/03 A3008 RMK A01 T00690030  RH  076%=      5-min Rain = 0
KRO1 171346Z 34009KT 07/03 A3009 RMK A01 T00690030  RH  076%=      5-min Rain = 0
KRO1 171347Z 35011KT 07/03 A3009 RMK A01 T00700029  RH  075%=      5-min Rain = 0
KRO1 171348Z 35010KT 07/03 A3009 RMK A01 T00700029  RH  075%=      5-min Rain = 0
KRO1 171349Z 35009G14KT 07/03 A3009 RMK A01 T00710029  RH  075%=      5-min Rain = 0
KRO1 171350Z 35012KT 07/03 A3009 RMK A01 T00710028  RH  074%=      5-min Rain = 0
KRO1 171351Z 35010KT 07/03 A3009 RMK A01 T00730028  RH  073%=      5-min Rain = 0
KRO1 171352Z 35009KT 07/03 A3009 RMK A01 T00730028  RH  073%=      5-min Rain = 0
KRO1 171353Z 35010KT 07/03 A3009 RMK A01 T00730028  RH  073%=      5-min Rain = 0
KRO1 171354Z 35010KT 07/03 A3009 RMK A01 T00730028  RH  073%=      5-min Rain = 0
KRO1 171355Z 35011KT 07/03 A3009 RMK A01 T00730028  RH  073%=      5-min Rain = 0
KRO1 171356Z 34009KT 07/03 A3009 RMK A01 T00730028  RH  073%=      5-min Rain = 0
KRO1 171357Z 35011KT 07/03 A3009 RMK A01 T00730028  RH  073%=      5-min Rain = 0
KRO1 171358Z 35012KT 07/03 A3009 RMK A01 T00740027  RH  072%=      5-min Rain = 0
KRO1 171359Z 35010G15KT 08/03 A3009 RMK A01 T00750027  RH  072%=      5-min Rain = 0
KRO1 171400Z 34011KT 08/03 A3009 RMK A01 T00750027  RH  072%=      5-min Rain = 0
KRO1 171401Z 35010KT 08/03 A3009 RMK A01 T00760027  RH  071%=      5-min Rain = 0
KRO1 171402Z 36010KT 08/03 A3009 RMK A01 T00760027  RH  071%=      5-min Rain = 0
KRO1 171403Z 36012KT 08/03 A3009 RMK A01 T00760027  RH  071%=      5-min Rain = 0
KRO1 171404Z 35010KT 08/03 A3009 RMK A01 T00770026  RH  070%=      5-min Rain = 0
KRO1 171405Z 35012KT 08/03 A3009 RMK A01 T00770026  RH  070%=      5-min Rain = 0
KRO1 171406Z 35012KT 08/03 A3009 RMK A01 T00780026  RH  070%=      5-min Rain = 0
KRO1 171407Z 36011KT 08/03 A3009 RMK A01 T00780026  RH  069%=      5-min Rain = 0
KRO1 171408Z 36013KT 08/03 A3009 RMK A01 T00790026  RH  069%=      5-min Rain = 0
KRO1 171409Z 00014KT 08/03 A3009 RMK A01 T00790025  RH  069%=      5-min Rain = 0
KRO1 171410Z 35012KT 08/03 A3009 RMK A01 T00800025  RH  068%=      5-min Rain = 0
KRO1 171411Z 35015KT 08/03 A3009 RMK A01 T00810026  RH  068%=      5-min Rain = 0
KRO1 171412Z 36014KT 08/03 A3009 RMK A01 T00810025  RH  068%=      5-min Rain = 0
KRO1 171413Z 00013KT 08/02 A301 RMK A01 T00820024  RH  067%=      5-min Rain = 0
KRO1 171414Z 00013KT 08/03 A301 RMK A01 T00820025  RH  067%=      5-min Rain = 0
KRO1 171415Z 36014KT 08/03 A301 RMK A01 T00830026  RH  067%=      5-min Rain = 0
KRO1 171416Z 00015KT 08/03 A301 RMK A01 T00830026  RH  067%=      5-min Rain = 0
KRO1 171417Z 00014KT 08/03 A301 RMK A01 T00840026  RH  067%=      5-min Rain = 0
KRO1 171418Z 36012G17KT 08/03 A301 RMK A01 T00840026  RH  067%=      5-min Rain = 0
KRO1 171419Z 36015KT 08/03 A301 RMK A01 T00840025  RH  066%=      5-min Rain = 0
KRO1 171420Z 36013KT 09/03 A301 RMK A01 T00850026  RH  066%=      5-min Rain = 0
KRO1 171421Z 00017KT 09/03 A301 RMK A01 T00860025  RH  066%=      5-min Rain = 0
KRO1 171422Z 35014KT 09/02 A301 RMK A01 T00870024  RH  065%=      5-min Rain = 0
KRO1 171423Z 35014KT 09/03 A301 RMK A01 T00880025  RH  065%=      5-min Rain = 0
KRO1 171424Z 36015KT 09/02 A301 RMK A01 T00880024  RH  064%=      5-min Rain = 0
KRO1 171425Z 35015KT 09/03 A301 RMK A01 T00890025  RH  064%=      5-min Rain = 0
KRO1 171426Z 36013KT 09/03 A301 RMK A01 T00900025  RH  064%=      5-min Rain = 0
KRO1 171427Z 35017G22KT 09/03 A301 RMK A01 T00910025  RH  064%=      5-min Rain = 0
KRO1 171428Z 00017KT 09/02 A301 RMK A01 T00920023  RH  062%=      5-min Rain = 0
KRO1 171429Z 35013KT 09/02 A301 RMK A01 T00920024  RH  062%=      5-min Rain = 0
KRO1 171430Z 36012KT 09/03 A3011 RMK A01 T00930026  RH  063%=      5-min Rain = 0
KRO1 171431Z 36014KT 09/03 A3011 RMK A01 T00930026  RH  063%=      5-min Rain = 0
KRO1 171432Z 35015KT 09/03 A3011 RMK A01 T00940025  RH  062%=      5-min Rain = 0
KRO1 171433Z 36013KT 09/03 A3011 RMK A01 T00940025  RH  062%=      5-min Rain = 0
KRO1 171434Z 35014KT 10/02 A3011 RMK A01 T00950024  RH  062%=      5-min Rain = 0
KRO1 171435Z 35016KT 10/03 A3011 RMK A01 T00950025  RH  062%=      5-min Rain = 0
KRO1 171436Z 35017G22KT 10/02 A3011 RMK A01 T00960024  RH  061%=      5-min Rain = 0
KRO1 171437Z 35018KT 10/02 A3011 RMK A01 T00970023  RH  060%=      5-min Rain = 0
KRO1 171438Z 00015KT 10/02 A3011 RMK A01 T00980024  RH  060%=      5-min Rain = 0
KRO1 171439Z 00015KT 10/02 A3011 RMK A01 T00980024  RH  060%=      5-min Rain = 0
KRO1 171440Z 00015KT 10/02 A3011 RMK A01 T00980024  RH  060%=      5-min Rain = 0
KRO1 171441Z 36015KT 10/02 A3011 RMK A01 T00990024  RH  060%=      5-min Rain = 0
KRO1 171442Z 35015G20KT 10/02 A3011 RMK A01 T00990024  RH  059%=      5-min Rain = 0
KRO1 171443Z 36019KT 10/02 A3011 RMK A01 T01000023  RH  059%=      5-min Rain = 0
KRO1 171444Z 36018KT 10/02 A3011 RMK A01 T01000022  RH  058%=      5-min Rain = 0
KRO1 171445Z 36016KT 10/02 A3011 RMK A01 T01010023  RH  058%=      5-min Rain = 0
KRO1 171446Z 00016KT 10/02 A3011 RMK A01 T01010023  RH  058%=      5-min Rain = 0
KRO1 171447Z 00016KT 10/02 A3011 RMK A01 T01010022  RH  058%=      5-min Rain = 0
KRO1 171448Z 35016KT 10/02 A3011 RMK A01 T01010023  RH  058%=      5-min Rain = 0
KRO1 171449Z 36015KT 10/02 A3011 RMK A01 T01020023  RH  058%=      5-min Rain = 0
KRO1 171450Z 36018KT 10/02 A3011 RMK A01 T01020023  RH  058%=      5-min Rain = 0
KRO1 171451Z 35018G23KT 10/02 A3011 RMK A01 T01020022  RH  057%=      5-min Rain = 0
KRO1 171452Z 35019KT 10/02 A3011 RMK A01 T01030023  RH  057%=      5-min Rain = 0
KRO1 171453Z 35018KT 10/02 A3011 RMK A01 T01030022  RH  057%=      5-min Rain = 0
KRO1 171454Z 35018KT 10/02 A3011 RMK A01 T01040022  RH  057%=      5-min Rain = 0
KRO1 171455Z 36015G20KT 10/02 A3011 RMK A01 T01040022  RH  057%=      5-min Rain = 0
KRO1 171456Z 36019G26KT 10/02 A3011 RMK A01 T01040023  RH  057%=      5-min Rain = 0
KRO1 171457Z 36020KT 11/02 A3011 RMK A01 T01050022  RH  056%=      5-min Rain = 0
KRO1 171458Z 36019KT 11/02 A3011 RMK A01 T01050021  RH  056%=      5-min Rain = 0
KRO1 171459Z 00019KT 11/02 A3011 RMK A01 T01050022  RH  056%=      5-min Rain = 0
KRO1 171500Z 35017G24KT 11/02 A3011 RMK A01 T01050023  RH  057%=      5-min Rain = 0
KRO1 171501Z 35017G22KT 11/02 A3011 RMK A01 T01060024  RH  057%=      5-min Rain = 0
KRO1 171502Z 36019KT 11/02 A3011 RMK A01 T01070023  RH  056%=      5-min Rain = 0
KRO1 171503Z 00016KT 11/02 A3011 RMK A01 T01060023  RH  056%=      5-min Rain = 0
KRO1 171504Z 36018G24KT 11/02 A3011 RMK A01 T01070024  RH  057%=      5-min Rain = 0
KRO1 171505Z 36024G29KT 11/02 A3011 RMK A01 T01080023  RH  056%=      5-min Rain = 0
KRO1 171506Z 36021G26KT 11/02 A3011 RMK A01 T01080022  RH  055%=      5-min Rain = 0
KRO1 171507Z 35020KT 11/02 A3011 RMK A01 T01080023  RH  056%=      5-min Rain = 0
KRO1 171508Z 00024KT 11/02 A3011 RMK A01 T01080022  RH  055%=      5-min Rain = 0
KRO1 171509Z 36022G28KT 11/02 A3011 RMK A01 T01080021  RH  055%=      5-min Rain = 0
KRO1 171510Z 00022G27KT 11/02 A3011 RMK A01 T01080021  RH  055%=      5-min Rain = 0
KRO1 171511Z 00017KT 11/02 A3011 RMK A01 T01080022  RH  055%=      5-min Rain = 0
KRO1 171512Z 36019KT 11/02 A3011 RMK A01 T01090024  RH  056%=      5-min Rain = 0
KRO1 171513Z 35019G24KT 11/02 A3011 RMK A01 T01090022  RH  055%=      5-min Rain = 0
KRO1 171514Z 35020G26KT 11/02 A3012 RMK A01 T01100023  RH  055%=      5-min Rain = 0
KRO1 171515Z 36022G27KT 11/02 A3012 RMK A01 T01100022  RH  055%=      5-min Rain = 0
KRO1 171516Z 00018G24KT 11/02 A3011 RMK A01 T01100021  RH  054%=      5-min Rain = 0
KRO1 171517Z 00020KT 11/02 A3012 RMK A01 T01100023  RH  055%=      5-min Rain = 0
KRO1 171518Z 01016G21KT 11/02 A3012 RMK A01 T01100022  RH  055%=      5-min Rain = 0
KRO1 171519Z 00018KT 11/02 A3011 RMK A01 T01110024  RH  055%=      5-min Rain = 0
KRO1 171520Z 36020G25KT 11/02 A3011 RMK A01 T01120024  RH  055%=      5-min Rain = 0
KRO1 171521Z 00021KT 11/02 A3011 RMK A01 T01120023  RH  054%=      5-min Rain = 0
KRO1 171522Z 01019KT 11/02 A3011 RMK A01 T01120023  RH  054%=      5-min Rain = 0
KRO1 171523Z 36019G25KT 11/02 A3011 RMK A01 T01120024  RH  054%=      5-min Rain = 0
KRO1 171524Z 00023KT 11/02 A3011 RMK A01 T01120022  RH  054%=      5-min Rain = 0
KRO1 171525Z 36021KT 11/02 A3011 RMK A01 T01120022  RH  054%=      5-min Rain = 0
KRO1 171526Z 00021G26KT 11/02 A3011 RMK A01 T01120022  RH  054%=      5-min Rain = 0
KRO1 171527Z 00016KT 11/02 A3011 RMK A01 T01130024  RH  054%=      5-min Rain = 0
KRO1 171528Z 00017G22KT 11/03 A3011 RMK A01 T01140025  RH  054%=      5-min Rain = 0
KRO1 171529Z 00019G24KT 12/03 A3011 RMK A01 T01150025  RH  054%=      5-min Rain = 0
KRO1 171530Z 01021KT 12/02 A3011 RMK A01 T01150024  RH  053%=      5-min Rain = 0
KRO1 171531Z 00019G24KT 12/02 A3011 RMK A01 T01150024  RH  053%=      5-min Rain = 0
KRO1 171532Z 00023KT 12/02 A3011 RMK A01 T01150024  RH  053%=      5-min Rain = 0
KRO1 171533Z 01021G26KT 12/02 A3011 RMK A01 T01150023  RH  053%=      5-min Rain = 0
KRO1 171534Z 01020KT 12/02 A3011 RMK A01 T01150023  RH  053%=      5-min Rain = 0
KRO1 171535Z 36023KT 12/02 A3012 RMK A01 T01160024  RH  053%=      5-min Rain = 0
KRO1 171536Z 00021KT 12/02 A3012 RMK A01 T01160023  RH  053%=      5-min Rain = 0
KRO1 171537Z 00022KT 12/02 A3012 RMK A01 T01160023  RH  053%=      5-min Rain = 0
KRO1 171538Z 36021G26KT 12/02 A3012 RMK A01 T01170024  RH  053%=      5-min Rain = 0
KRO1 171539Z 00019G26KT 12/02 A3012 RMK A01 T01170024  RH  053%=      5-min Rain = 0
KRO1 171540Z 00016KT 12/03 A3012 RMK A01 T01180026  RH  053%=      5-min Rain = 0
KRO1 171541Z 00022KT 12/03 A3012 RMK A01 T01190026  RH  053%=      5-min Rain = 0
KRO1 171542Z 00021KT 12/03 A3012 RMK A01 T01190025  RH  052%=      5-min Rain = 0
KRO1 171543Z 00021KT 12/03 A3012 RMK A01 T01190025  RH  052%=      5-min Rain = 0
KRO1 171544Z 00024G29KT 12/02 A3012 RMK A01 T01190024  RH  052%=      5-min Rain = 0
KRO1 171545Z 00022KT 12/02 A3012 RMK A01 T01180023  RH  052%=      5-min Rain = 0
KRO1 171546Z 00018KT 12/02 A3012 RMK A01 T01180024  RH  053%=      5-min Rain = 0
KRO1 171547Z 00020KT 12/03 A3012 RMK A01 T01190025  RH  052%=      5-min Rain = 0
KRO1 171548Z 01020KT 12/03 A3012 RMK A01 T01190025  RH  052%=      5-min Rain = 0
KRO1 171549Z 01021KT 12/03 A3012 RMK A01 T01200025  RH  052%=      5-min Rain = 0
KRO1 171550Z 01017G24KT 12/03 A3012 RMK A01 T01200025  RH  052%=      5-min Rain = 0
KRO1 171551Z 00018KT 12/03 A3012 RMK A01 T01210025  RH  052%=      5-min Rain = 0
KRO1 171552Z 36021G28KT 12/03 A3012 RMK A01 T01210026  RH  052%=      5-min Rain = 0
KRO1 171553Z 36023KT 12/02 A3012 RMK A01 T01210024  RH  051%=      5-min Rain = 0
KRO1 171554Z 36019G24KT 12/03 A3012 RMK A01 T01210026  RH  052%=      5-min Rain = 0
KRO1 171555Z 00022KT 12/03 A3012 RMK A01 T01210025  RH  052%=      5-min Rain = 0
KRO1 171556Z 36020KT 12/03 A3012 RMK A01 T01210025  RH  052%=      5-min Rain = 0
KRO1 171557Z 00018G24KT 12/03 A3012 RMK A01 T01220026  RH  052%=      5-min Rain = 0
KRO1 171558Z 00021KT 12/03 A3012 RMK A01 T01220026  RH  052%=      5-min Rain = 0
KRO1 171559Z 01023KT 12/03 A3012 RMK A01 T01220025  RH  051%=      5-min Rain = 0
KRO1 171600Z 01023KT 12/03 A3012 RMK A01 T01220025  RH  051%=      5-min Rain = 0
KRO1 171601Z 01022KT 12/02 A3012 RMK A01 T01210024  RH  051%=      5-min Rain = 0
KRO1 171602Z 00019G25KT 12/03 A3012 RMK A01 T01220025  RH  052%=      5-min Rain = 0
KRO1 171603Z 36022G29KT 12/03 A3012 RMK A01 T01230026  RH  052%=      5-min Rain = 0
KRO1 171604Z 01020G27KT 12/03 A3012 RMK A01 T01230025  RH  051%=      5-min Rain = 0
KRO1 171605Z 01021KT 12/03 A3012 RMK A01 T01230025  RH  051%=      5-min Rain = 0
KRO1 171606Z 01020G25KT 12/03 A3012 RMK A01 T01230025  RH  051%=      5-min Rain = 0
KRO1 171607Z 01018G24KT 12/03 A3012 RMK A01 T01240026  RH  051%=      5-min Rain = 0
KRO1 171608Z 02019KT 12/03 A3012 RMK A01 T01240026  RH  051%=      5-min Rain = 0
KRO1 171609Z 01015KT 12/03 A3012 RMK A01 T01240027  RH  051%=      5-min Rain = 0
KRO1 171610Z 01021KT 13/03 A3012 RMK A01 T01250027  RH  051%=      5-min Rain = 0
KRO1 171611Z 01019G27KT 13/03 A3012 RMK A01 T01250026  RH  051%=      5-min Rain = 0
KRO1 171612Z 01019G25KT 13/03 A3012 RMK A01 T01260027  RH  051%=      5-min Rain = 0
KRO1 171613Z 01022G27KT 13/03 A3012 RMK A01 T01260026  RH  051%=      5-min Rain = 0
KRO1 171614Z 01020G27KT 13/03 A3013 RMK A01 T01260025  RH  050%=      5-min Rain = 0
KRO1 171615Z 01020KT 13/03 A3013 RMK A01 T01250026  RH  051%=      5-min Rain = 0
KRO1 171616Z 36021KT 13/03 A3013 RMK A01 T01260026  RH  051%=      5-min Rain = 0
KRO1 171617Z 01019KT 13/03 A3013 RMK A01 T01260026  RH  051%=      5-min Rain = 0
KRO1 171618Z 01016G21KT 13/03 A3013 RMK A01 T01270027  RH  051%=      5-min Rain = 0
KRO1 171619Z 01017KT 13/03 A3013 RMK A01 T01280028  RH  051%=      5-min Rain = 0
KRO1 171620Z 01017G22KT 13/03 A3013 RMK A01 T01300028  RH  050%=      5-min Rain = 0
KRO1 171621Z 01021G26KT 13/03 A3013 RMK A01 T01300026  RH  049%=      5-min Rain = 0
KRO1 171622Z 01018KT 13/03 A3013 RMK A01 T01290026  RH  049%=      5-min Rain = 0
KRO1 171623Z 01018G23KT 13/03 A3013 RMK A01 T01300026  RH  050%=      5-min Rain = 0
KRO1 171624Z 02023KT 13/03 A3013 RMK A01 T01300026  RH  049%=      5-min Rain = 0
KRO1 171625Z 02018KT 13/02 A3013 RMK A01 T01300024  RH  049%=      5-min Rain = 0
KRO1 171626Z 02018KT 13/03 A3013 RMK A01 T01300026  RH  049%=      5-min Rain = 0
KRO1 171627Z 01019KT 13/03 A3013 RMK A01 T01300025  RH  049%=      5-min Rain = 0
KRO1 171628Z 01018KT 13/03 A3013 RMK A01 T01310026  RH  049%=      5-min Rain = 0
KRO1 171629Z 01017KT 13/03 A3013 RMK A01 T01310026  RH  049%=      5-min Rain = 0
KRO1 171630Z 01019KT 13/03 A3013 RMK A01 T01310026  RH  049%=      5-min Rain = 0
KRO1 171631Z 01021G26KT 13/03 A3013 RMK A01 T01320026  RH  049%=      5-min Rain = 0
KRO1 171632Z 01023KT 13/02 A3013 RMK A01 T01320024  RH  048%=      5-min Rain = 0
KRO1 171633Z 01020KT 13/03 A3013 RMK A01 T01320025  RH  048%=      5-min Rain = 0
KRO1 171634Z 01018KT 13/03 A3013 RMK A01 T01320025  RH  048%=      5-min Rain = 0
KRO1 171635Z 01016KT 13/03 A3013 RMK A01 T01330027  RH  049%=      5-min Rain = 0
KRO1 171636Z 01018KT 14/03 A3013 RMK A01 T01350026  RH  048%=      5-min Rain = 0
KRO1 171637Z 01014G19KT 14/03 A3013 RMK A01 T01350027  RH  048%=      5-min Rain = 0
KRO1 171638Z 01015KT 14/03 A3013 RMK A01 T01370030  RH  048%=      5-min Rain = 0
KRO1 171639Z 00014KT 14/03 A3013 RMK A01 T01380030  RH  048%=      5-min Rain = 0
KRO1 171640Z 01016KT 14/03 A3013 RMK A01 T01390030  RH  048%=      5-min Rain = 0
KRO1 171641Z 00015G20KT 14/03 A3013 RMK A01 T01380028  RH  047%=      5-min Rain = 0
KRO1 171642Z 00021KT 14/03 A3013 RMK A01 T01370028  RH  048%=      5-min Rain = 0
KRO1 171643Z 36018KT 14/03 A3013 RMK A01 T01370027  RH  047%=      5-min Rain = 0
KRO1 171644Z 00020KT 14/03 A3013 RMK A01 T01360026  RH  047%=      5-min Rain = 0
KRO1 171645Z 36020KT 14/03 A3013 RMK A01 T01350026  RH  048%=      5-min Rain = 0
KRO1 171646Z 01021KT 14/03 A3013 RMK A01 T01350026  RH  047%=      5-min Rain = 0
KRO1 171647Z 01019KT 14/03 A3013 RMK A01 T01350026  RH  047%=      5-min Rain = 0
KRO1 171648Z 00022G27KT 14/03 A3013 RMK A01 T01350027  RH  048%=      5-min Rain = 0
KRO1 171649Z 00022KT 14/03 A3013 RMK A01 T01350025  RH  047%=      5-min Rain = 0
KRO1 171650Z 01021KT 14/03 A3013 RMK A01 T01350026  RH  047%=      5-min Rain = 0
KRO1 171651Z 00018KT 14/03 A3013 RMK A01 T01350026  RH  048%=      5-min Rain = 0
KRO1 171652Z 36017KT 14/03 A3013 RMK A01 T01360028  RH  048%=      5-min Rain = 0
KRO1 171653Z 00017KT 14/03 A3013 RMK A01 T01370028  RH  048%=      5-min Rain = 0
KRO1 171654Z 00017G22KT 14/03 A3013 RMK A01 T01380029  RH  048%=      5-min Rain = 0
KRO1 171655Z 00017KT 14/03 A3013 RMK A01 T01390028  RH  047%=      5-min Rain = 0
KRO1 171656Z 36018KT 14/03 A3013 RMK A01 T01380028  RH  047%=      5-min Rain = 0
KRO1 171657Z 01017KT 14/03 A3013 RMK A01 T01390027  RH  047%=      5-min Rain = 0
KRO1 171658Z 00015KT 14/03 A3013 RMK A01 T01380029  RH  048%=      5-min Rain = 0
KRO1 171659Z 00017KT 14/03 A3013 RMK A01 T01390028  RH  047%=      5-min Rain = 0
KRO1 171700Z 00018KT 14/03 A3013 RMK A01 T01380027  RH  047%=      5-min Rain = 0
KRO1 171701Z 36018KT 14/03 A3013 RMK A01 T01380027  RH  047%=      5-min Rain = 0
KRO1 171702Z 36019G24KT 14/03 A3013 RMK A01 T01390028  RH  047%=      5-min Rain = 0
KRO1 171703Z 01019KT 14/03 A3013 RMK A01 T01390028  RH  047%=      5-min Rain = 0
KRO1 171704Z 00019KT 14/03 A3013 RMK A01 T01390027  RH  047%=      5-min Rain = 0
KRO1 171705Z 01019KT 14/03 A3013 RMK A01 T01390028  RH  047%=      5-min Rain = 0
KRO1 171706Z 01018KT 14/03 A3013 RMK A01 T01390027  RH  047%=      5-min Rain = 0
KRO1 171707Z 00018KT 14/03 A3013 RMK A01 T01390027  RH  047%=      5-min Rain = 0
KRO1 171708Z 01016KT 14/03 A3013 RMK A01 T01390028  RH  047%=      5-min Rain = 0
KRO1 171709Z 01018KT 14/03 A3013 RMK A01 T01400029  RH  047%=      5-min Rain = 0
KRO1 171710Z 01017KT 14/03 A3013 RMK A01 T01400027  RH  046%=      5-min Rain = 0
KRO1 171711Z 01020KT 14/03 A3013 RMK A01 T01400028  RH  047%=      5-min Rain = 0
KRO1 171712Z 01017KT 14/03 A3012 RMK A01 T01400028  RH  047%=      5-min Rain = 0
KRO1 171713Z 02016KT 14/03 A3012 RMK A01 T01400029  RH  047%=      5-min Rain = 0
KRO1 171714Z 01015KT 14/03 A3012 RMK A01 T01400028  RH  047%=      5-min Rain = 0
KRO1 171715Z 01013KT 14/03 A3012 RMK A01 T01400029  RH  047%=      5-min Rain = 0
KRO1 171716Z 00019KT 14/03 A3012 RMK A01 T01420030  RH  047%=      5-min Rain = 0
KRO1 171717Z 36016KT 14/03 A3012 RMK A01 T01420029  RH  046%=      5-min Rain = 0
KRO1 171718Z 00017KT 14/03 A3012 RMK A01 T01430030  RH  047%=      5-min Rain = 0
KRO1 171719Z 00020KT 14/03 A3012 RMK A01 T01440030  RH  046%=      5-min Rain = 0
KRO1 171720Z 01020KT 14/03 A3012 RMK A01 T01420027  RH  046%=      5-min Rain = 0
KRO1 171721Z 00018KT 14/03 A3012 RMK A01 T01410028  RH  046%=      5-min Rain = 0
KRO1 171722Z 00015G20KT 14/03 A3012 RMK A01 T01410028  RH  046%=      5-min Rain = 0
KRO1 171723Z 36013KT 14/03 A3012 RMK A01 T01420031  RH  047%=      5-min Rain = 0
KRO1 171724Z 36015KT 15/03 A3012 RMK A01 T01450032  RH  047%=      5-min Rain = 0
KRO1 171725Z 01018KT 15/03 A3012 RMK A01 T01450029  RH  046%=      5-min Rain = 0
KRO1 171726Z 02015G20KT 14/03 A3012 RMK A01 T01440028  RH  046%=      5-min Rain = 0
KRO1 171727Z 02015KT 14/03 A3012 RMK A01 T01430028  RH  046%=      5-min Rain = 0
KRO1 171728Z 01014KT 14/03 A3012 RMK A01 T01440029  RH  046%=      5-min Rain = 0
KRO1 171729Z 01017KT 15/03 A3012 RMK A01 T01450030  RH  046%=      5-min Rain = 0
KRO1 171730Z 01015G20KT 15/03 A3012 RMK A01 T01450030  RH  046%=      5-min Rain = 0
KRO1 171731Z 00016KT 15/03 A3012 RMK A01 T01450030  RH  046%=      5-min Rain = 0
KRO1 171732Z 36017KT 14/03 A3012 RMK A01 T01440031  RH  046%=      5-min Rain = 0
KRO1 171733Z 36017KT 14/03 A3012 RMK A01 T01440030  RH  046%=      5-min Rain = 0
KRO1 171734Z 00013G18KT 14/03 A3012 RMK A01 T01440030  RH  046%=      5-min Rain = 0
KRO1 171735Z 35016KT 15/03 A3012 RMK A01 T01460032  RH  046%=      5-min Rain = 0
KRO1 171736Z 01017KT 15/03 A3012 RMK A01 T01470031  RH  046%=      5-min Rain = 0
KRO1 171737Z 01018KT 15/03 A3012 RMK A01 T01470030  RH  045%=      5-min Rain = 0
KRO1 171738Z 01015KT 15/03 A3012 RMK A01 T01470030  RH  045%=      5-min Rain = 0
KRO1 171739Z 02014KT 15/03 A3012 RMK A01 T01470030  RH  045%=      5-min Rain = 0
KRO1 171740Z 01015G20KT 15/03 A3012 RMK A01 T01480032  RH  046%=      5-min Rain = 0
KRO1 171741Z 01014G19KT 15/03 A3012 RMK A01 T01480031  RH  045%=      5-min Rain = 0
KRO1 171742Z 01013G19KT 15/03 A3012 RMK A01 T01490034  RH  046%=      5-min Rain = 0
KRO1 171743Z 01015KT 15/03 A3012 RMK A01 T01510032  RH  045%=      5-min Rain = 0
KRO1 171744Z 02013KT 15/03 A3012 RMK A01 T01510031  RH  045%=      5-min Rain = 0
KRO1 171745Z 00016KT 15/03 A3012 RMK A01 T01510030  RH  044%=      5-min Rain = 0
KRO1 171746Z 01016KT 15/03 A3012 RMK A01 T01480029  RH  044%=      5-min Rain = 0
KRO1 171747Z 36014KT 15/03 A3012 RMK A01 T01470030  RH  045%=      5-min Rain = 0
KRO1 171748Z 36016KT 15/03 A3012 RMK A01 T01480030  RH  045%=      5-min Rain = 0
KRO1 171749Z 00017KT 15/03 A3012 RMK A01 T01480031  RH  045%=      5-min Rain = 0
KRO1 171750Z 00015KT 15/03 A3012 RMK A01 T01480030  RH  045%=      5-min Rain = 0
KRO1 171751Z 35016KT 15/03 A3012 RMK A01 T01480032  RH  046%=      5-min Rain = 0
KRO1 171752Z 01011KT 15/03 A3012 RMK A01 T01490033  RH  046%=      5-min Rain = 0
KRO1 171753Z 01012KT 15/03 A3011 RMK A01 T01500032  RH  045%=      5-min Rain = 0
KRO1 171754Z 00010KT 15/04 A3011 RMK A01 T01520035  RH  046%=      5-min Rain = 0
KRO1 171755Z 36015KT 16/03 A3011 RMK A01 T01550034  RH  044%=      5-min Rain = 0
KRO1 171756Z 01017KT 15/03 A3011 RMK A01 T01530030  RH  044%=      5-min Rain = 0
KRO1 171757Z 01013KT 15/03 A3011 RMK A01 T01510030  RH  044%=      5-min Rain = 0
KRO1 171758Z 01015KT 15/03 A3011 RMK A01 T01500029  RH  044%=      5-min Rain = 0
KRO1 171759Z 36016KT 15/03 A3011 RMK A01 T01480029  RH  045%=      5-min Rain = 0
KRO1 171800Z 36016KT 15/03 A3011 RMK A01 T01480029  RH  044%=      5-min Rain = 0
KRO1 171801Z 00015KT 15/03 A3011 RMK A01 T01490029  RH  044%=      5-min Rain = 0
KRO1 171802Z 01014KT 15/03 A3011 RMK A01 T01510031  RH  044%=      5-min Rain = 0
KRO1 171803Z 01014KT 15/03 A3011 RMK A01 T01520030  RH  044%=      5-min Rain = 0
KRO1 171804Z 01012KT 15/03 A3011 RMK A01 T01510030  RH  044%=      5-min Rain = 0
KRO1 171805Z 34011KT 15/03 A3011 RMK A01 T01520033  RH  045%=      5-min Rain = 0
KRO1 171806Z 36011KT 15/03 A3011 RMK A01 T01530032  RH  044%=      5-min Rain = 0
KRO1 171807Z 00015KT 16/03 A3011 RMK A01 T01550032  RH  044%=      5-min Rain = 0
KRO1 171808Z 36017KT 16/03 A3011 RMK A01 T01550030  RH  043%=      5-min Rain = 0
KRO1 171809Z 36014KT 15/03 A3011 RMK A01 T01540030  RH  043%=      5-min Rain = 0
KRO1 171810Z 00013KT 15/03 A3011 RMK A01 T01530030  RH  044%=      5-min Rain = 0
KRO1 171811Z 36012KT 15/03 A3011 RMK A01 T01540030  RH  043%=      5-min Rain = 0
KRO1 171812Z 00010KT 15/03 A3011 RMK A01 T01540031  RH  044%=      5-min Rain = 0
KRO1 171813Z 01014G20KT 16/03 A3011 RMK A01 T01570034  RH  044%=      5-min Rain = 0
KRO1 171814Z 02015KT 16/03 A3011 RMK A01 T01580031  RH  042%=      5-min Rain = 0
KRO1 171815Z 01015KT 16/03 A3011 RMK A01 T01570029  RH  042%=      5-min Rain = 0
KRO1 171816Z 01014KT 16/03 A3011 RMK A01 T01550028  RH  042%=      5-min Rain = 0
KRO1 171817Z 01016KT 15/03 A3011 RMK A01 T01530029  RH  043%=      5-min Rain = 0
KRO1 171818Z 01013KT 15/03 A3011 RMK A01 T01540029  RH  043%=      5-min Rain = 0
KRO1 171819Z 01014KT 15/03 A3011 RMK A01 T01530029  RH  043%=      5-min Rain = 0
KRO1 171820Z 01012KT 15/03 A3011 RMK A01 T01540031  RH  044%=      5-min Rain = 0
KRO1 171821Z 36012KT 16/03 A3011 RMK A01 T01560031  RH  043%=      5-min Rain = 0
KRO1 171822Z 00010KT 16/03 A3011 RMK A01 T01570030  RH  043%=      5-min Rain = 0
KRO1 171823Z 02010KT 16/03 A3011 RMK A01 T01560029  RH  043%=      5-min Rain = 0
KRO1 171824Z 03012KT 16/03 A3011 RMK A01 T01570030  RH  043%=      5-min Rain = 0
KRO1 171825Z 02011KT 16/03 A3011 RMK A01 T01580030  RH  042%=      5-min Rain = 0
KRO1 171826Z 00013KT 16/03 A3011 RMK A01 T01590030  RH  042%=      5-min Rain = 0
KRO1 171827Z 00012KT 16/03 A3011 RMK A01 T01580029  RH  042%=      5-min Rain = 0
KRO1 171828Z 36010KT 16/03 A3011 RMK A01 T01570026  RH  041%=      5-min Rain = 0
KRO1 171829Z 35012KT 16/03 A3011 RMK A01 T01550028  RH  042%=      5-min Rain = 0
KRO1 171830Z 00013KT 16/03 A3011 RMK A01 T01570030  RH  043%=      5-min Rain = 0
KRO1 171831Z 36012KT 16/03 A3011 RMK A01 T01590030  RH  042%=      5-min Rain = 0
KRO1 171832Z 35011KT 16/03 A3011 RMK A01 T01590031  RH  042%=      5-min Rain = 0
KRO1 171833Z 00011KT 16/03 A3011 RMK A01 T01600031  RH  042%=      5-min Rain = 0
KRO1 171834Z 03012KT 16/03 A3011 RMK A01 T01600028  RH  041%=      5-min Rain = 0
KRO1 171835Z 02010KT 16/03 A3011 RMK A01 T01600029  RH  042%=      5-min Rain = 0
KRO1 171836Z 03012G17KT 16/03 A3011 RMK A01 T01610031  RH  042%=      5-min Rain = 0
KRO1 171837Z 01010KT 16/03 A3011 RMK A01 T01620031  RH  041%=      5-min Rain = 0
KRO1 171838Z 01011KT 16/03 A3011 RMK A01 T01620031  RH  041%=      5-min Rain = 0
KRO1 171839Z 03012KT 16/03 A3011 RMK A01 T01620029  RH  041%=      5-min Rain = 0
KRO1 171840Z 02012KT 16/03 A3011 RMK A01 T01610028  RH  041%=      5-min Rain = 0
KRO1 171841Z 01010KT 16/03 A3011 RMK A01 T01610032  RH  042%=      5-min Rain = 0
KRO1 171842Z 01010KT 16/03 A301 RMK A01 T01620031  RH  042%=      5-min Rain = 0
KRO1 171843Z 01009KT 16/03 A301 RMK A01 T01630031  RH  041%=      5-min Rain = 0
KRO1 171844Z 01012KT 16/03 A301 RMK A01 T01630030  RH  041%=      5-min Rain = 0
KRO1 171845Z 01012KT 16/03 A301 RMK A01 T01620029  RH  041%=      5-min Rain = 0
KRO1 171846Z 00013KT 16/03 A301 RMK A01 T01620031  RH  041%=      5-min Rain = 0
KRO1 171847Z 01013KT 16/03 A301 RMK A01 T01630029  RH  041%=      5-min Rain = 0
KRO1 171848Z 01014KT 16/03 A301 RMK A01 T01620029  RH  041%=      5-min Rain = 0
KRO1 171849Z 01013KT 16/03 A301 RMK A01 T01620029  RH  041%=      5-min Rain = 0
KRO1 171850Z 01011KT 16/03 A301 RMK A01 T01610030  RH  041%=      5-min Rain = 0
KRO1 171851Z 01013KT 16/03 A301 RMK A01 T01610030  RH  041%=      5-min Rain = 0
KRO1 171852Z 01012KT 16/03 A301 RMK A01 T01620031  RH  041%=      5-min Rain = 0
KRO1 171853Z 01011KT 16/03 A3009 RMK A01 T01630031  RH  041%=      5-min Rain = 0
KRO1 171854Z 00013KT 16/03 A3009 RMK A01 T01640031  RH  041%=      5-min Rain = 0
KRO1 171855Z 01014KT 17/03 A3009 RMK A01 T01650031  RH  041%=      5-min Rain = 0
KRO1 171856Z 01013KT 17/03 A3009 RMK A01 T01650029  RH  040%=      5-min Rain = 0
KRO1 171857Z 35012KT 17/03 A3009 RMK A01 T01650031  RH  041%=      5-min Rain = 0
KRO1 171858Z 00014KT 17/03 A3009 RMK A01 T01650032  RH  041%=      5-min Rain = 0
KRO1 171859Z 01011KT 17/03 A3009 RMK A01 T01650032  RH  041%=      5-min Rain = 0
KRO1 171900Z 01010KT 17/03 A3009 RMK A01 T01650031  RH  041%=      5-min Rain = 0
KRO1 171901Z 01009KT 16/03 A3009 RMK A01 T01640031  RH  041%=      5-min Rain = 0
KRO1 171902Z 01014KT 17/03 A3009 RMK A01 T01650032  RH  041%=      5-min Rain = 0
KRO1 171903Z 01011KT 17/03 A3009 RMK A01 T01650030  RH  040%=      5-min Rain = 0
KRO1 171904Z 01012KT 16/03 A3009 RMK A01 T01640031  RH  041%=      5-min Rain = 0
KRO1 171905Z 02011KT 17/03 A3009 RMK A01 T01650032  RH  041%=      5-min Rain = 0
KRO1 171906Z 36014KT 17/03 A3009 RMK A01 T01660032  RH  041%=      5-min Rain = 0
KRO1 171907Z 00012KT 17/03 A3009 RMK A01 T01670031  RH  040%=      5-min Rain = 0
KRO1 171908Z 01014KT 17/03 A3009 RMK A01 T01660031  RH  040%=      5-min Rain = 0
KRO1 171909Z 01013KT 17/03 A3009 RMK A01 T01650030  RH  040%=      5-min Rain = 0
KRO1 171910Z 02009KT 16/03 A3009 RMK A01 T01630028  RH  040%=      5-min Rain = 0
KRO1 171911Z 35010G15KT 16/03 A3009 RMK A01 T01610029  RH  041%=      5-min Rain = 0
KRO1 171912Z 35014KT 16/03 A3009 RMK A01 T01630030  RH  041%=      5-min Rain = 0
KRO1 171913Z 01012KT 16/03 A3009 RMK A01 T01640030  RH  040%=      5-min Rain = 0
KRO1 171914Z 01013KT 17/03 A3009 RMK A01 T01660029  RH  040%=      5-min Rain = 0
KRO1 171915Z 01013KT 17/03 A3009 RMK A01 T01650028  RH  040%=      5-min Rain = 0
KRO1 171916Z 01013G19KT 17/03 A3009 RMK A01 T01650030  RH  041%=      5-min Rain = 0
KRO1 171917Z 01012KT 17/03 A3009 RMK A01 T01660031  RH  040%=      5-min Rain = 0
KRO1 171918Z 36012KT 17/03 A3009 RMK A01 T01670033  RH  041%=      5-min Rain = 0
KRO1 171919Z 36013KT 17/03 A3009 RMK A01 T01680032  RH  040%=      5-min Rain = 0
KRO1 171920Z 35011KT 17/03 A3009 RMK A01 T01680032  RH  040%=      5-min Rain = 0
KRO1 171921Z 36012KT 17/03 A3009 RMK A01 T01680032  RH  040%=      5-min Rain = 0
KRO1 171922Z 35013KT 17/03 A3009 RMK A01 T01680030  RH  040%=      5-min Rain = 0
KRO1 171923Z 35013KT 17/03 A3009 RMK A01 T01670031  RH  040%=      5-min Rain = 0
KRO1 171924Z 36013KT 17/03 A3009 RMK A01 T01670031  RH  040%=      5-min Rain = 0
KRO1 171925Z 36014KT 17/03 A3009 RMK A01 T01680030  RH  040%=      5-min Rain = 0
KRO1 171926Z 36014KT 17/03 A3009 RMK A01 T01670030  RH  040%=      5-min Rain = 0
KRO1 171927Z 01013KT 17/03 A3009 RMK A01 T01670031  RH  040%=      5-min Rain = 0
KRO1 171928Z 01011KT 17/03 A3009 RMK A01 T01670030  RH  040%=      5-min Rain = 0
KRO1 171929Z 00011KT 17/03 A3009 RMK A01 T01680033  RH  040%=      5-min Rain = 0
KRO1 171930Z 35012KT 17/03 A3009 RMK A01 T01700034  RH  040%=      5-min Rain = 0
KRO1 171931Z 36012KT 17/03 A3009 RMK A01 T01700033  RH  040%=      5-min Rain = 0
KRO1 171932Z 00012KT 17/03 A3009 RMK A01 T01700032  RH  040%=      5-min Rain = 0
KRO1 171933Z 36013KT 17/03 A3009 RMK A01 T01700032  RH  040%=      5-min Rain = 0
KRO1 171934Z 36012KT 17/03 A3009 RMK A01 T01700030  RH  039%=      5-min Rain = 0
KRO1 171935Z 01013KT 17/03 A3009 RMK A01 T01690031  RH  040%=      5-min Rain = 0
KRO1 171936Z 36011KT 17/03 A3009 RMK A01 T01700031  RH  039%=      5-min Rain = 0
KRO1 171937Z 35010KT 17/03 A3009 RMK A01 T01690031  RH  040%=      5-min Rain = 0
KRO1 171938Z 35008KT 17/03 A3009 RMK A01 T01700032  RH  040%=      5-min Rain = 0
KRO1 171939Z 01012G17KT 17/03 A3009 RMK A01 T01710032  RH  039%=      5-min Rain = 0
KRO1 171940Z 35015KT 17/03 A3009 RMK A01 T01710031  RH  039%=      5-min Rain = 0
KRO1 171941Z 35014KT 17/03 A3009 RMK A01 T01700030  RH  039%=      5-min Rain = 0
KRO1 171942Z 36015KT 17/03 A3009 RMK A01 T01690029  RH  039%=      5-min Rain = 0
KRO1 171943Z 36014KT 17/03 A3009 RMK A01 T01690030  RH  039%=      5-min Rain = 0
KRO1 171944Z 36012KT 17/03 A3009 RMK A01 T01690031  RH  040%=      5-min Rain = 0
KRO1 171945Z 36013KT 17/03 A3009 RMK A01 T01700033  RH  040%=      5-min Rain = 0
KRO1 171946Z 36013KT 17/03 A3009 RMK A01 T01710032  RH  039%=      5-min Rain = 0
KRO1 171947Z 36014KT 17/03 A3009 RMK A01 T01710033  RH  040%=      5-min Rain = 0
KRO1 171948Z 00012KT 17/03 A3009 RMK A01 T01710030  RH  039%=      5-min Rain = 0
KRO1 171949Z 35010KT 17/03 A3009 RMK A01 T01700030  RH  039%=      5-min Rain = 0
KRO1 171950Z 34008KT 17/03 A3009 RMK A01 T01700029  RH  039%=      5-min Rain = 0
KRO1 171951Z 36010KT 17/03 A3009 RMK A01 T01690029  RH  039%=      5-min Rain = 0
KRO1 171952Z 36013KT 17/03 A3009 RMK A01 T01700031  RH  039%=      5-min Rain = 0
KRO1 171953Z 35011KT 17/03 A3009 RMK A01 T01710033  RH  040%=      5-min Rain = 0
KRO1 171954Z 36012KT 17/03 A3009 RMK A01 T01730031  RH  039%=      5-min Rain = 0
KRO1 171955Z 36011KT 17/03 A3009 RMK A01 T01730032  RH  039%=      5-min Rain = 0
KRO1 171956Z 00010KT 17/03 A3009 RMK A01 T01730030  RH  038%=      5-min Rain = 0
KRO1 171957Z 01010KT 17/03 A3009 RMK A01 T01730031  RH  039%=      5-min Rain = 0
KRO1 171958Z 02012KT 17/03 A3009 RMK A01 T01740031  RH  038%=      5-min Rain = 0
KRO1 171959Z 01011KT 17/03 A3009 RMK A01 T01730028  RH  038%=      5-min Rain = 0
KRO1 172000Z 01011KT 17/03 A3009 RMK A01 T01720031  RH  039%=      5-min Rain = 0
KRO1 172001Z 02011KT 17/03 A3009 RMK A01 T01730032  RH  039%=      5-min Rain = 0
KRO1 172002Z 01015KT 17/03 A3009 RMK A01 T01730029  RH  038%=      5-min Rain = 0
KRO1 172003Z 01015KT 17/03 A3009 RMK A01 T01710028  RH  038%=      5-min Rain = 0
KRO1 172004Z 01015KT 17/03 A3009 RMK A01 T01700028  RH  039%=      5-min Rain = 0
KRO1 172005Z 01011KT 17/03 A3009 RMK A01 T01700028  RH  039%=      5-min Rain = 0
KRO1 172006Z 02011KT 17/03 A3009 RMK A01 T01700029  RH  039%=      5-min Rain = 0
KRO1 172007Z 01010KT 17/03 A3009 RMK A01 T01710029  RH  039%=      5-min Rain = 0
KRO1 172008Z 36015KT 17/03 A3009 RMK A01 T01720031  RH  039%=      5-min Rain = 0
KRO1 172009Z 36013KT 17/03 A3009 RMK A01 T01730031  RH  039%=      5-min Rain = 0
KRO1 172010Z 36014KT 17/03 A3009 RMK A01 T01740031  RH  039%=      5-min Rain = 0
KRO1 172011Z 00012KT 17/03 A3009 RMK A01 T01740028  RH  038%=      5-min Rain = 0
KRO1 172012Z 01010KT 17/03 A3009 RMK A01 T01730028  RH  038%=      5-min Rain = 0
KRO1 172013Z 00007KT 17/03 A3009 RMK A01 T01720027  RH  038%=      5-min Rain = 0
KRO1 172014Z 00009KT 17/03 A3009 RMK A01 T01730030  RH  038%=      5-min Rain = 0
KRO1 172015Z 35010G16KT 18/03 A3009 RMK A01 T01750031  RH  038%=      5-min Rain = 0
KRO1 172016Z 01014KT 18/03 A3009 RMK A01 T01750029  RH  038%=      5-min Rain = 0
KRO1 172017Z 01011KT 17/03 A3009 RMK A01 T01730027  RH  038%=      5-min Rain = 0
KRO1 172018Z 02013KT 17/03 A3009 RMK A01 T01730030  RH  039%=      5-min Rain = 0
KRO1 172019Z 00012KT 17/03 A3009 RMK A01 T01740030  RH  038%=      5-min Rain = 0
KRO1 172020Z 36013KT 17/03 A3009 RMK A01 T01740032  RH  039%=      5-min Rain = 0
KRO1 172021Z 36014KT 18/03 A3009 RMK A01 T01750032  RH  038%=      5-min Rain = 0
KRO1 172022Z 36012KT 18/03 A3009 RMK A01 T01750030  RH  038%=      5-min Rain = 0
KRO1 172023Z 36010KT 17/03 A3009 RMK A01 T01740030  RH  038%=      5-min Rain = 0
KRO1 172024Z 35011KT 17/03 A3009 RMK A01 T01740031  RH  038%=      5-min Rain = 0
KRO1 172025Z 01010KT 18/03 A3009 RMK A01 T01750031  RH  038%=      5-min Rain = 0
KRO1 172026Z 01010KT 18/03 A3009 RMK A01 T01750030  RH  038%=      5-min Rain = 0
KRO1 172027Z 01009KT 18/03 A3009 RMK A01 T01760032  RH  038%=      5-min Rain = 0
KRO1 172028Z 35009KT 18/03 A3009 RMK A01 T01770032  RH  038%=      5-min Rain = 0
KRO1 172029Z 35013KT 18/03 A3008 RMK A01 T01780032  RH  038%=      5-min Rain = 0
KRO1 172030Z 35013KT 18/03 A3008 RMK A01 T01770031  RH  038%=      5-min Rain = 0
KRO1 172031Z 35014KT 18/03 A3008 RMK A01 T01770031  RH  038%=      5-min Rain = 0
KRO1 172032Z 35014KT 18/03 A3009 RMK A01 T01760031  RH  038%=      5-min Rain = 0
KRO1 172033Z 35011KT 18/03 A3008 RMK A01 T01750030  RH  038%=      5-min Rain = 0
KRO1 172034Z 34011KT 18/03 A3008 RMK A01 T01750031  RH  038%=      5-min Rain = 0
KRO1 172035Z 34011KT 18/03 A3008 RMK A01 T01750030  RH  038%=      5-min Rain = 0
KRO1 172036Z 33011KT 18/03 A3008 RMK A01 T01750030  RH  038%=      5-min Rain = 0
KRO1 172037Z 34009KT 18/03 A3008 RMK A01 T01750028  RH  038%=      5-min Rain = 0
KRO1 172038Z 35008KT 18/03 A3008 RMK A01 T01760032  RH  038%=      5-min Rain = 0
KRO1 172039Z 34012KT 18/03 A3008 RMK A01 T01780031  RH  038%=      5-min Rain = 0
KRO1 172040Z 34011KT 18/03 A3008 RMK A01 T01790030  RH  037%=      5-min Rain = 0
KRO1 172041Z 34012G17KT 18/03 A3008 RMK A01 T01790029  RH  037%=      5-min Rain = 0
KRO1 172042Z 34015KT 18/03 A3008 RMK A01 T01780031  RH  037%=      5-min Rain = 0
KRO1 172043Z 36013KT 18/03 A3008 RMK A01 T01780030  RH  037%=      5-min Rain = 0
KRO1 172044Z 35014KT 18/03 A3008 RMK A01 T01770029  RH  037%=      5-min Rain = 0
KRO1 172045Z 36012KT 18/03 A3008 RMK A01 T01750029  RH  038%=      5-min Rain = 0
KRO1 172046Z 36012KT 18/03 A3008 RMK A01 T01760032  RH  038%=      5-min Rain = 0
KRO1 172047Z 35012KT 18/03 A3009 RMK A01 T01770031  RH  038%=      5-min Rain = 0
KRO1 172048Z 35010KT 18/03 A3008 RMK A01 T01760030  RH  038%=      5-min Rain = 0
KRO1 172049Z 01012KT 18/03 A3008 RMK A01 T01760031  RH  038%=      5-min Rain = 0
KRO1 172050Z 00010KT 18/03 A3008 RMK A01 T01760030  RH  038%=      5-min Rain = 0
KRO1 172051Z 01008KT 18/03 A3008 RMK A01 T01750029  RH  037%=      5-min Rain = 0
KRO1 172052Z 00009KT 17/03 A3008 RMK A01 T01740029  RH  038%=      5-min Rain = 0
KRO1 172053Z 00008KT 17/03 A3008 RMK A01 T01740030  RH  038%=      5-min Rain = 0
KRO1 172054Z 35011KT 18/03 A3008 RMK A01 T01750032  RH  038%=      5-min Rain = 0
KRO1 172055Z 00012KT 18/03 A3008 RMK A01 T01770033  RH  038%=      5-min Rain = 0
KRO1 172056Z 01012KT 18/03 A3008 RMK A01 T01780033  RH  038%=      5-min Rain = 0
KRO1 172057Z 01010KT 18/03 A3008 RMK A01 T01770032  RH  038%=      5-min Rain = 0
KRO1 172058Z 03010KT 18/03 A3008 RMK A01 T01760029  RH  037%=      5-min Rain = 0
KRO1 172059Z 02007KT 18/03 A3007 RMK A01 T01750030  RH  038%=      5-min Rain = 0
KRO1 172100Z 35007KT 18/03 A3007 RMK A01 T01750030  RH  038%=      5-min Rain = 0
KRO1 172101Z 01007KT 18/03 A3007 RMK A01 T01760032  RH  038%=      5-min Rain = 0
KRO1 172102Z 01011KT 18/03 A3007 RMK A01 T01770032  RH  038%=      5-min Rain = 0
KRO1 172103Z 01008KT 18/03 A3007 RMK A01 T01770031  RH  038%=      5-min Rain = 0
KRO1 172104Z 35011G16KT 18/03 A3007 RMK A01 T01770032  RH  038%=      5-min Rain = 0
KRO1 172105Z 35012KT 18/03 A3007 RMK A01 T01770032  RH  038%=      5-min Rain = 0
KRO1 172106Z 36010G15KT 18/03 A3007 RMK A01 T01770031  RH  038%=      5-min Rain = 0
KRO1 172107Z 00011G16KT 18/03 A3007 RMK A01 T01770032  RH  038%=      5-min Rain = 0
KRO1 172108Z 00011KT 18/03 A3007 RMK A01 T01770031  RH  038%=      5-min Rain = 0
KRO1 172109Z 35010KT 18/03 A3007 RMK A01 T01760032  RH  038%=      5-min Rain = 0
KRO1 172110Z 34010KT 18/03 A3007 RMK A01 T01760031  RH  038%=      5-min Rain = 0
KRO1 172111Z 01007KT 18/03 A3007 RMK A01 T01760030  RH  038%=      5-min Rain = 0
KRO1 172112Z 35006KT 18/03 A3007 RMK A01 T01750031  RH  038%=      5-min Rain = 0
KRO1 172113Z 35008KT 18/03 A3007 RMK A01 T01760032  RH  038%=      5-min Rain = 0
KRO1 172114Z 34009KT 18/03 A3007 RMK A01 T01770032  RH  038%=      5-min Rain = 0
KRO1 172115Z 35009KT 18/03 A3007 RMK A01 T01780033  RH  038%=      5-min Rain = 0
KRO1 172116Z 36011KT 18/03 A3007 RMK A01 T01780032  RH  038%=      5-min Rain = 0
KRO1 172117Z 02010KT 18/03 A3007 RMK A01 T01790032  RH  038%=      5-min Rain = 0
KRO1 172118Z 02011KT 18/03 A3007 RMK A01 T01780028  RH  037%=      5-min Rain = 0
KRO1 172119Z 01008KT 18/03 A3007 RMK A01 T01760029  RH  038%=      5-min Rain = 0
KRO1 172120Z 36008KT 18/03 A3007 RMK A01 T01760031  RH  038%=      5-min Rain = 0
KRO1 172121Z 01007KT 18/03 A3007 RMK A01 T01760029  RH  037%=      5-min Rain = 0
KRO1 172122Z 01006KT 18/03 A3007 RMK A01 T01760029  RH  037%=      5-min Rain = 0
KRO1 172123Z 00007KT 18/03 A3007 RMK A01 T01750029  RH  038%=      5-min Rain = 0
KRO1 172124Z 35006KT 18/03 A3007 RMK A01 T01750031  RH  038%=      5-min Rain = 0
KRO1 172125Z 35007KT 18/03 A3007 RMK A01 T01770033  RH  038%=      5-min Rain = 0
KRO1 172126Z 36006KT 18/03 A3007 RMK A01 T01780032  RH  038%=      5-min Rain = 0
KRO1 172127Z 01005KT 18/03 A3007 RMK A01 T01780032  RH  038%=      5-min Rain = 0
KRO1 172128Z 02009KT 18/03 A3007 RMK A01 T01790032  RH  038%=      5-min Rain = 0
KRO1 172129Z 02007KT 18/03 A3007 RMK A01 T01780031  RH  037%=      5-min Rain = 0
KRO1 172130Z 00008KT 18/03 A3007 RMK A01 T01780032  RH  038%=      5-min Rain = 0
KRO1 172131Z 01007KT 18/04 A3007 RMK A01 T01790036  RH  039%=      5-min Rain = 0
KRO1 172132Z 35009KT 18/04 A3007 RMK A01 T01810035  RH  038%=      5-min Rain = 0
KRO1 172133Z 00008KT 18/03 A3007 RMK A01 T01810031  RH  037%=      5-min Rain = 0
KRO1 172134Z 02010KT 18/03 A3007 RMK A01 T01790030  RH  037%=      5-min Rain = 0
KRO1 172135Z 02008KT 18/03 A3007 RMK A01 T01780030  RH  037%=      5-min Rain = 0
KRO1 172136Z 02012KT 18/03 A3006 RMK A01 T01770030  RH  037%=      5-min Rain = 0
KRO1 172137Z 02012KT 18/03 A3006 RMK A01 T01760029  RH  037%=      5-min Rain = 0
KRO1 172138Z 03011KT 18/03 A3006 RMK A01 T01760029  RH  038%=      5-min Rain = 0
KRO1 172139Z 01010KT 18/03 A3006 RMK A01 T01760030  RH  038%=      5-min Rain = 0
KRO1 172140Z 01010KT 18/03 A3006 RMK A01 T01760031  RH  038%=      5-min Rain = 0
KRO1 172141Z 00011KT 18/03 A3006 RMK A01 T01760032  RH  038%=      5-min Rain = 0
KRO1 172142Z 00011KT 18/03 A3006 RMK A01 T01760032  RH  038%=      5-min Rain = 0
KRO1 172143Z 00009KT 18/03 A3006 RMK A01 T01760032  RH  038%=      5-min Rain = 0
KRO1 172144Z 35011KT 18/03 A3006 RMK A01 T01750032  RH  038%=      5-min Rain = 0
KRO1 172145Z 35008KT 18/03 A3006 RMK A01 T01750031  RH  038%=      5-min Rain = 0
KRO1 172146Z 35008KT 17/03 A3006 RMK A01 T01740032  RH  039%=      5-min Rain = 0
KRO1 172147Z 00009KT 18/03 A3006 RMK A01 T01750033  RH  039%=      5-min Rain = 0
KRO1 172148Z 00009KT 18/03 A3006 RMK A01 T01760034  RH  039%=      5-min Rain = 0
KRO1 172149Z 01008KT 18/03 A3006 RMK A01 T01760030  RH  038%=      5-min Rain = 0
KRO1 172150Z 01010KT 18/03 A3006 RMK A01 T01750031  RH  038%=      5-min Rain = 0
KRO1 172151Z 36010KT 18/03 A3006 RMK A01 T01750033  RH  039%=      5-min Rain = 0
KRO1 172152Z 01011KT 18/03 A3006 RMK A01 T01760032  RH  038%=      5-min Rain = 0
KRO1 172153Z 01010KT 18/03 A3006 RMK A01 T01750030  RH  038%=      5-min Rain = 0
KRO1 172154Z 01007KT 17/03 A3006 RMK A01 T01740030  RH  038%=      5-min Rain = 0
KRO1 172155Z 00007KT 17/03 A3006 RMK A01 T01740030  RH  038%=      5-min Rain = 0
KRO1 172156Z 01005KT 17/03 A3006 RMK A01 T01740030  RH  038%=      5-min Rain = 0
KRO1 172157Z 01008KT 18/03 A3006 RMK A01 T01750032  RH  038%=      5-min Rain = 0
KRO1 172158Z 01008KT 18/03 A3006 RMK A01 T01760031  RH  038%=      5-min Rain = 0
KRO1 172159Z 01010KT 18/03 A3006 RMK A01 T01760031  RH  038%=      5-min Rain = 0
KRO1 172200Z 01010KT 18/03 A3006 RMK A01 T01750030  RH  038%=      5-min Rain = 0
KRO1 172201Z 01008KT 17/03 A3006 RMK A01 T01730029  RH  038%=      5-min Rain = 0
KRO1 172202Z 01011KT 17/03 A3006 RMK A01 T01730031  RH  039%=      5-min Rain = 0
KRO1 172203Z 02010KT 17/03 A3006 RMK A01 T01730030  RH  039%=      5-min Rain = 0
KRO1 172204Z 02008KT 17/03 A3006 RMK A01 T01730030  RH  038%=      5-min Rain = 0
KRO1 172205Z 03009KT 17/03 A3006 RMK A01 T01740031  RH  038%=      5-min Rain = 0
KRO1 172206Z 02008KT 17/03 A3006 RMK A01 T01740030  RH  038%=      5-min Rain = 0
KRO1 172207Z 02010KT 17/03 A3006 RMK A01 T01740031  RH  038%=      5-min Rain = 0
KRO1 172208Z 03009KT 17/03 A3006 RMK A01 T01740031  RH  039%=      5-min Rain = 0
KRO1 172209Z 03009KT 18/03 A3006 RMK A01 T01750030  RH  038%=      5-min Rain = 0
KRO1 172210Z 03008KT 17/03 A3006 RMK A01 T01740029  RH  038%=      5-min Rain = 0
KRO1 172211Z 02008KT 17/03 A3006 RMK A01 T01740031  RH  038%=      5-min Rain = 0
KRO1 172212Z 01009KT 17/03 A3006 RMK A01 T01740031  RH  038%=      5-min Rain = 0
KRO1 172213Z 00008KT 17/03 A3006 RMK A01 T01740031  RH  038%=      5-min Rain = 0
KRO1 172214Z 36008KT 17/03 A3006 RMK A01 T01740032  RH  039%=      5-min Rain = 0
KRO1 172215Z 01009KT 17/03 A3006 RMK A01 T01740034  RH  039%=      5-min Rain = 0
KRO1 172216Z 01009KT 17/03 A3006 RMK A01 T01740031  RH  038%=      5-min Rain = 0
KRO1 172217Z 01009KT 17/03 A3006 RMK A01 T01740031  RH  038%=      5-min Rain = 0
KRO1 172218Z 01011KT 17/03 A3006 RMK A01 T01730032  RH  039%=      5-min Rain = 0
KRO1 172219Z 01011KT 17/03 A3006 RMK A01 T01730031  RH  039%=      5-min Rain = 0
KRO1 172220Z 01010KT 17/03 A3006 RMK A01 T01720031  RH  039%=      5-min Rain = 0
KRO1 172221Z 01010KT 17/03 A3006 RMK A01 T01710030  RH  039%=      5-min Rain = 0
KRO1 172222Z 01008KT 17/03 A3006 RMK A01 T01710030  RH  039%=      5-min Rain = 0
KRO1 172223Z 36007KT 17/03 A3006 RMK A01 T01710031  RH  039%=      5-min Rain = 0
KRO1 172224Z 35008KT 17/03 A3006 RMK A01 T01710032  RH  040%=      5-min Rain = 0
KRO1 172225Z 00007KT 17/03 A3006 RMK A01 T01710031  RH  039%=      5-min Rain = 0
KRO1 172226Z 35007KT 17/03 A3006 RMK A01 T01710031  RH  039%=      5-min Rain = 0
KRO1 172227Z 36007KT 17/03 A3006 RMK A01 T01700030  RH  039%=      5-min Rain = 0
KRO1 172228Z 00009KT 17/03 A3006 RMK A01 T01700031  RH  039%=      5-min Rain = 0
KRO1 172229Z 00009KT 17/03 A3006 RMK A01 T01700031  RH  039%=      5-min Rain = 0
KRO1 172230Z 00008KT 17/03 A3006 RMK A01 T01700032  RH  040%=      5-min Rain = 0
KRO1 172231Z 36009KT 17/03 A3006 RMK A01 T01690030  RH  039%=      5-min Rain = 0
KRO1 172232Z 01007KT 17/03 A3006 RMK A01 T01690030  RH  039%=      5-min Rain = 0
KRO1 172233Z 00007KT 17/03 A3006 RMK A01 T01690031  RH  040%=      5-min Rain = 0
KRO1 172234Z 01008KT 17/03 A3006 RMK A01 T01680031  RH  040%=      5-min Rain = 0
KRO1 172235Z 01008KT 17/03 A3007 RMK A01 T01690031  RH  040%=      5-min Rain = 0
KRO1 172236Z 36006KT 17/03 A3007 RMK A01 T01690031  RH  040%=      5-min Rain = 0
KRO1 172237Z 36008KT 17/03 A3007 RMK A01 T01690031  RH  040%=      5-min Rain = 0
KRO1 172238Z 01009KT 17/03 A3007 RMK A01 T01690030  RH  039%=      5-min Rain = 0
KRO1 172239Z 01008KT 17/03 A3007 RMK A01 T01680030  RH  039%=      5-min Rain = 0
KRO1 172240Z 00008KT 17/03 A3007 RMK A01 T01680029  RH  039%=      5-min Rain = 0
KRO1 172241Z 00008KT 17/03 A3007 RMK A01 T01680029  RH  039%=      5-min Rain = 0
KRO1 172242Z 00009KT 17/03 A3007 RMK A01 T01680030  RH  040%=      5-min Rain = 0
KRO1 172243Z 00008KT 17/03 A3006 RMK A01 T01680031  RH  040%=      5-min Rain = 0
KRO1 172244Z 01009KT 17/03 A3006 RMK A01 T01680032  RH  040%=      5-min Rain = 0
KRO1 172245Z 01009KT 17/03 A3006 RMK A01 T01680031  RH  040%=      5-min Rain = 0
KRO1 172246Z 01006KT 17/03 A3006 RMK A01 T01680031  RH  040%=      5-min Rain = 0
KRO1 172247Z 01007KT 17/03 A3006 RMK A01 T01680033  RH  040%=      5-min Rain = 0
KRO1 172248Z 01007KT 17/03 A3006 RMK A01 T01670032  RH  040%=      5-min Rain = 0
KRO1 172249Z 01007KT 17/03 A3006 RMK A01 T01670032  RH  040%=      5-min Rain = 0
KRO1 172250Z 36010KT 17/03 A3006 RMK A01 T01670031  RH  040%=      5-min Rain = 0
KRO1 172251Z 00009KT 17/03 A3006 RMK A01 T01670031  RH  040%=      5-min Rain = 0
KRO1 172252Z 00008KT 17/03 A3006 RMK A01 T01670032  RH  040%=      5-min Rain = 0
KRO1 172253Z 36007KT 17/03 A3006 RMK A01 T01670033  RH  041%=      5-min Rain = 0
KRO1 172254Z 36007KT 17/03 A3006 RMK A01 T01660033  RH  041%=      5-min Rain = 0
KRO1 172255Z 00008KT 17/03 A3006 RMK A01 T01650033  RH  041%=      5-min Rain = 0
KRO1 172256Z 00008KT 17/03 A3006 RMK A01 T01650032  RH  041%=      5-min Rain = 0
KRO1 172257Z 36009KT 17/03 A3006 RMK A01 T01650032  RH  041%=      5-min Rain = 0
KRO1 172258Z 00008KT 16/03 A3006 RMK A01 T01640031  RH  041%=      5-min Rain = 0
KRO1 172259Z 36008KT 17/03 A3006 RMK A01 T01650032  RH  041%=      5-min Rain = 0
KRO1 172300Z 36008KT 16/03 A3006 RMK A01 T01640033  RH  041%=      5-min Rain = 0
KRO1 172301Z 00008KT 16/03 A3006 RMK A01 T01640031  RH  041%=      5-min Rain = 0
KRO1 172302Z 35007KT 16/03 A3006 RMK A01 T01640032  RH  041%=      5-min Rain = 0
KRO1 172303Z 36006KT 16/03 A3006 RMK A01 T01630033  RH  042%=      5-min Rain = 0
KRO1 172304Z 36007KT 16/03 A3006 RMK A01 T01620034  RH  042%=      5-min Rain = 0
KRO1 172305Z 36007KT 16/03 A3006 RMK A01 T01610033  RH  042%=      5-min Rain = 0
KRO1 172306Z 00007KT 16/03 A3006 RMK A01 T01610034  RH  043%=      5-min Rain = 0
KRO1 172307Z 36007KT 16/03 A3006 RMK A01 T01600034  RH  043%=      5-min Rain = 0
KRO1 172308Z 01007KT 16/03 A3006 RMK A01 T01590034  RH  043%=      5-min Rain = 0
KRO1 172309Z 01007KT 16/03 A3006 RMK A01 T01590034  RH  043%=      5-min Rain = 0
KRO1 172310Z 01007KT 16/03 A3006 RMK A01 T01580033  RH  043%=      5-min Rain = 0
KRO1 172311Z 01007KT 16/03 A3007 RMK A01 T01580033  RH  043%=      5-min Rain = 0
KRO1 172312Z 01007KT 16/03 A3007 RMK A01 T01580034  RH  043%=      5-min Rain = 0
KRO1 172313Z 01007KT 16/03 A3007 RMK A01 T01570034  RH  044%=      5-min Rain = 0
KRO1 172314Z 01007KT 16/03 A3007 RMK A01 T01560034  RH  044%=      5-min Rain = 0
KRO1 172315Z 01006KT 16/03 A3006 RMK A01 T01560034  RH  044%=      5-min Rain = 0
KRO1 172316Z 00006KT 16/03 A3006 RMK A01 T01550034  RH  044%=      5-min Rain = 0
KRO1 172317Z 01006KT 15/03 A3006 RMK A01 T01540034  RH  045%=      5-min Rain = 0
KRO1 172318Z 01006KT 15/03 A3006 RMK A01 T01540034  RH  045%=      5-min Rain = 0
KRO1 172319Z 01006KT 15/03 A3006 RMK A01 T01530034  RH  045%=      5-min Rain = 0
KRO1 172320Z 00006KT 15/04 A3006 RMK A01 T01520035  RH  045%=      5-min Rain = 0
KRO1 172321Z 00006KT 15/04 A3006 RMK A01 T01510035  RH  046%=      5-min Rain = 0
KRO1 172322Z 00005KT 15/04 A3006 RMK A01 T01500035  RH  046%=      5-min Rain = 0
KRO1 172323Z 00006KT 15/04 A3006 RMK A01 T01490035  RH  046%=      5-min Rain = 0
KRO1 172324Z 00006KT 15/04 A3006 RMK A01 T01490035  RH  047%=      5-min Rain = 0
KRO1 172325Z 01006KT 15/04 A3006 RMK A01 T01470035  RH  047%=      5-min Rain = 0
KRO1 172326Z 00005KT 15/04 A3006 RMK A01 T01470035  RH  047%=      5-min Rain = 0
KRO1 172327Z 00005KT 15/04 A3006 RMK A01 T01460035  RH  047%=      5-min Rain = 0
KRO1 172328Z 00005KT 15/04 A3007 RMK A01 T01460036  RH  048%=      5-min Rain = 0
KRO1 172329Z 00005KT 14/04 A3007 RMK A01 T01440035  RH  048%=      5-min Rain = 0
KRO1 172330Z 36005KT 14/04 A3007 RMK A01 T01440035  RH  048%=      5-min Rain = 0
KRO1 172331Z 36006KT 14/04 A3007 RMK A01 T01430036  RH  048%=      5-min Rain = 0
KRO1 172332Z 36005KT 14/04 A3007 RMK A01 T01420036  RH  049%=      5-min Rain = 0
KRO1 172333Z 36006KT 14/04 A3007 RMK A01 T01410036  RH  049%=      5-min Rain = 0
KRO1 172334Z 00006KT 14/04 A3007 RMK A01 T01390036  RH  050%=      5-min Rain = 0
KRO1 172335Z 00007KT 14/04 A3007 RMK A01 T01380036  RH  050%=      5-min Rain = 0
KRO1 172336Z 00007KT 14/04 A3007 RMK A01 T01370037  RH  051%=      5-min Rain = 0
KRO1 172337Z 00007KT 14/04 A3007 RMK A01 T01360037  RH  051%=      5-min Rain = 0
KRO1 172338Z 00007KT 13/04 A3007 RMK A01 T01340037  RH  052%=      5-min Rain = 0
KRO1 172339Z 00008KT 13/04 A3007 RMK A01 T01330037  RH  052%=      5-min Rain = 0
KRO1 172340Z 00008KT 13/04 A3007 RMK A01 T01330037  RH  052%=      5-min Rain = 0
KRO1 172341Z 00008KT 13/04 A3007 RMK A01 T01330038  RH  053%=      5-min Rain = 0
KRO1 172342Z 00008KT 13/04 A3007 RMK A01 T01320038  RH  053%=      5-min Rain = 0
KRO1 172343Z 00008KT 13/04 A3007 RMK A01 T01320038  RH  053%=      5-min Rain = 0
KRO1 172344Z 00008KT 13/04 A3007 RMK A01 T01320037  RH  052%=      5-min Rain = 0
KRO1 172345Z 00008KT 13/04 A3007 RMK A01 T01330037  RH  052%=      5-min Rain = 0
KRO1 172346Z 00007KT 13/04 A3007 RMK A01 T01330037  RH  052%=      5-min Rain = 0
KRO1 172347Z 00007KT 13/04 A3007 RMK A01 T01330037  RH  052%=      5-min Rain = 0
KRO1 172348Z 00007KT 13/04 A3006 RMK A01 T01320037  RH  052%=      5-min Rain = 0
KRO1 172349Z 00007KT 13/04 A3006 RMK A01 T01310037  RH  053%=      5-min Rain = 0
KRO1 172350Z 00007KT 13/04 A3007 RMK A01 T01310037  RH  053%=      5-min Rain = 0
KRO1 172351Z 36007KT 13/04 A3007 RMK A01 T01300037  RH  053%=      5-min Rain = 0
KRO1 172352Z 35006KT 13/04 A3007 RMK A01 T01290037  RH  053%=      5-min Rain = 0
KRO1 172353Z 35007KT 13/04 A3007 RMK A01 T01290036  RH  053%=      5-min Rain = 0
KRO1 172354Z 35006KT 13/04 A3007 RMK A01 T01290036  RH  053%=      5-min Rain = 0
KRO1 172355Z 35006KT 13/04 A3007 RMK A01 T01280036  RH  053%=      5-min Rain = 0
KRO1 172356Z 35006KT 13/04 A3007 RMK A01 T01280035  RH  053%=      5-min Rain = 0
KRO1 172357Z 35006KT 13/04 A3007 RMK A01 T01280035  RH  053%=      5-min Rain = 0
KRO1 172358Z 35005KT 13/04 A3007 RMK A01 T01280035  RH  053%=      5-min Rain = 0
KRO1 172359Z 35005KT 13/03 A3007 RMK A01 T01280034  RH  053%=      5-min Rain = 0
KRO1 180000Z 35005KT 13/03 A3007 RMK A01 T01280034  RH  053%=      5-min Rain = 0
KRO1 180001Z 35006KT 13/03 A3007 RMK A01 T01270034  RH  053%=      5-min Rain = 0
KRO1 180002Z 35006KT 13/03 A3007 RMK A01 T01270034  RH  053%=      5-min Rain = 0
KRO1 180003Z 36006KT 13/03 A3007 RMK A01 T01270034  RH  053%=      5-min Rain = 0
KRO1 180004Z 36006KT 13/03 A3007 RMK A01 T01270034  RH  053%=      5-min Rain = 0
KRO1 180005Z 00006KT 13/03 A3007 RMK A01 T01270034  RH  053%=      5-min Rain = 0
KRO1 180006Z 00006KT 13/03 A3007 RMK A01 T01270034  RH  053%=      5-min Rain = 0
KRO1 180007Z 00006KT 13/03 A3007 RMK A01 T01270034  RH  053%=      5-min Rain = 0
KRO1 180008Z 00006KT 13/04 A3007 RMK A01 T01270035  RH  053%=      5-min Rain = 0
KRO1 180009Z 00006KT 13/04 A3007 RMK A01 T01270035  RH  054%=      5-min Rain = 0
KRO1 180010Z 00006KT 13/04 A3007 RMK A01 T01260035  RH  054%=      5-min Rain = 0
KRO1 180011Z 00006KT 13/04 A3007 RMK A01 T01260035  RH  054%=      5-min Rain = 0
KRO1 180012Z 00006KT 13/04 A3007 RMK A01 T01250035  RH  054%=      5-min Rain = 0
KRO1 180013Z 00006KT 13/04 A3007 RMK A01 T01250035  RH  054%=      5-min Rain = 0
KRO1 180014Z 00006KT 12/04 A3007 RMK A01 T01240035  RH  054%=      5-min Rain = 0
KRO1 180015Z 00006KT 12/04 A3007 RMK A01 T01240035  RH  055%=      5-min Rain = 0
KRO1 180016Z 00006KT 12/04 A3007 RMK A01 T01240035  RH  055%=      5-min Rain = 0
KRO1 180017Z 01006KT 12/04 A3007 RMK A01 T01230035  RH  055%=      5-min Rain = 0
KRO1 180018Z 00006KT 12/04 A3007 RMK A01 T01230035  RH  055%=      5-min Rain = 0
KRO1 180019Z 01006KT 12/03 A3007 RMK A01 T01230034  RH  055%=      5-min Rain = 0
KRO1 180020Z 00006KT 12/04 A3007 RMK A01 T01230035  RH  055%=      5-min Rain = 0
KRO1 180021Z 00006KT 12/03 A3007 RMK A01 T01230034  RH  054%=      5-min Rain = 0
KRO1 180022Z 00005KT 12/03 A3008 RMK A01 T01240034  RH  054%=      5-min Rain = 0
KRO1 180023Z 00005KT 12/03 A3008 RMK A01 T01240034  RH  054%=      5-min Rain = 0
KRO1 180024Z 00005KT 12/03 A3008 RMK A01 T01240034  RH  054%=      5-min Rain = 0
KRO1 180025Z 00005KT 13/03 A3008 RMK A01 T01250034  RH  054%=      5-min Rain = 0
KRO1 180026Z 00005KT 13/03 A3008 RMK A01 T01260034  RH  053%=      5-min Rain = 0
KRO1 180027Z 00005KT 13/03 A3008 RMK A01 T01270034  RH  053%=      5-min Rain = 0
KRO1 180028Z 00005KT 13/03 A3008 RMK A01 T01280033  RH  052%=      5-min Rain = 0
KRO1 180029Z 00005KT 13/03 A3008 RMK A01 T01280033  RH  052%=      5-min Rain = 0
KRO1 180030Z 00005KT 13/03 A3008 RMK A01 T01290032  RH  052%=      5-min Rain = 0
KRO1 180031Z 00005KT 13/03 A3008 RMK A01 T01290033  RH  052%=      5-min Rain = 0
KRO1 180032Z 00005KT 13/03 A3008 RMK A01 T01280032  RH  052%=      5-min Rain = 0
KRO1 180033Z 00005KT 13/03 A3008 RMK A01 T01270032  RH  052%=      5-min Rain = 0
KRO1 180034Z 00006KT 13/03 A3008 RMK A01 T01250032  RH  053%=      5-min Rain = 0
KRO1 180035Z 00006KT 12/03 A3008 RMK A01 T01230032  RH  054%=      5-min Rain = 0
KRO1 180036Z 00006KT 12/03 A3008 RMK A01 T01190032  RH  055%=      5-min Rain = 0
KRO1 180037Z 00006KT 12/03 A3008 RMK A01 T01160032  RH  056%=      5-min Rain = 0
KRO1 180038Z 00006KT 11/03 A3008 RMK A01 T01140032  RH  057%=      5-min Rain = 0
KRO1 180039Z 00006KT 11/03 A3008 RMK A01 T01140033  RH  057%=      5-min Rain = 0
KRO1 180040Z 00006KT 11/03 A3008 RMK A01 T01130033  RH  058%=      5-min Rain = 0
KRO1 180041Z 00006KT 11/03 A3008 RMK A01 T01120033  RH  058%=      5-min Rain = 0
KRO1 180042Z 00005KT 11/03 A3008 RMK A01 T01120033  RH  058%=      5-min Rain = 0
KRO1 180043Z 00005KT 11/03 A3008 RMK A01 T01120033  RH  058%=      5-min Rain = 0
KRO1 180044Z 00005KT 11/03 A3008 RMK A01 T01130033  RH  058%=      5-min Rain = 0
KRO1 180045Z 00005KT 11/03 A3008 RMK A01 T01140033  RH  058%=      5-min Rain = 0
KRO1 180046Z 00004KT 12/03 A3008 RMK A01 T01150033  RH  057%=      5-min Rain = 0
KRO1 180047Z 00004KT 12/03 A3009 RMK A01 T01160033  RH  057%=      5-min Rain = 0
KRO1 180048Z 36004KT 12/03 A3009 RMK A01 T01170033  RH  056%=      5-min Rain = 0
KRO1 180049Z 35004KT 12/03 A3009 RMK A01 T01180033  RH  056%=      5-min Rain = 0
KRO1 180050Z 35004KT 12/03 A3009 RMK A01 T01190033  RH  055%=      5-min Rain = 0
KRO1 180051Z 35004KT 12/03 A3009 RMK A01 T01200033  RH  055%=      5-min Rain = 0
KRO1 180052Z 36004KT 12/03 A3009 RMK A01 T01200032  RH  055%=      5-min Rain = 0
KRO1 180053Z 00005KT 12/03 A3009 RMK A01 T01200032  RH  055%=      5-min Rain = 0
KRO1 180054Z 00005KT 12/03 A3009 RMK A01 T01210032  RH  055%=      5-min Rain = 0
KRO1 180055Z 00005KT 12/03 A3008 RMK A01 T01210032  RH  055%=      5-min Rain = 0
KRO1 180056Z 00005KT 12/03 A3008 RMK A01 T01210032  RH  055%=      5-min Rain = 0
KRO1 180057Z 00005KT 12/03 A3009 RMK A01 T01210032  RH  054%=      5-min Rain = 0
KRO1 180058Z 00005KT 12/03 A3009 RMK A01 T01200032  RH  055%=      5-min Rain = 0
KRO1 180059Z 01005KT 12/03 A3009 RMK A01 T01180031  RH  055%=      5-min Rain = 0
KRO1 180100Z 01005KT 12/03 A3009 RMK A01 T01150031  RH  056%=      5-min Rain = 0
KRO1 180101Z 01005KT 11/03 A3009 RMK A01 T01120031  RH  057%=      5-min Rain = 0
KRO1 180102Z 01005KT 11/03 A3009 RMK A01 T01100032  RH  058%=      5-min Rain = 0
KRO1 180103Z 02004KT 11/03 A3009 RMK A01 T01080032  RH  059%=      5-min Rain = 0
KRO1 180104Z 02004KT 11/03 A3009 RMK A01 T01060033  RH  061%=      5-min Rain = 0
KRO1 180105Z 02004KT 10/03 A3009 RMK A01 T01030034  RH  062%=      5-min Rain = 0
KRO1 180106Z 02004KT 10/03 A3009 RMK A01 T01000033  RH  063%=      5-min Rain = 0
KRO1 180107Z 02004KT 10/03 A3009 RMK A01 T00990033  RH  064%=      5-min Rain = 0
KRO1 180108Z 02003KT 10/03 A3009 RMK A01 T00980033  RH  064%=      5-min Rain = 0
KRO1 180109Z 01003KT 10/03 A3009 RMK A01 T00970033  RH  065%=      5-min Rain = 0
KRO1 180110Z 01003KT 10/03 A3009 RMK A01 T00960033  RH  065%=      5-min Rain = 0
KRO1 180111Z 01003KT 10/03 A3009 RMK A01 T00950032  RH  065%=      5-min Rain = 0
KRO1 180112Z 01003KT 10/03 A3009 RMK A01 T00950032  RH  065%=      5-min Rain = 0
KRO1 180113Z 01003KT 09/03 A3009 RMK A01 T00940032  RH  065%=      5-min Rain = 0
KRO1 180114Z 02003KT 09/03 A3009 RMK A01 T00940032  RH  065%=      5-min Rain = 0
KRO1 180115Z 02003KT 09/03 A3009 RMK A01 T00940032  RH  065%=      5-min Rain = 0
KRO1 180116Z 02003KT 09/03 A3009 RMK A01 T00940032  RH  065%=      5-min Rain = 0
KRO1 180117Z 02003KT 09/03 A3009 RMK A01 T00940033  RH  065%=      5-min Rain = 0
KRO1 180118Z 02003KT 10/03 A3009 RMK A01 T00960034  RH  065%=      5-min Rain = 0
KRO1 180119Z 02003KT 10/03 A3009 RMK A01 T00970034  RH  065%=      5-min Rain = 0
KRO1 180120Z 02003KT 10/03 A3009 RMK A01 T00980033  RH  064%=      5-min Rain = 0
KRO1 180121Z 01003KT 10/03 A3009 RMK A01 T01000033  RH  063%=      5-min Rain = 0
KRO1 180122Z 01003KT 10/03 A3009 RMK A01 T01020033  RH  062%=      5-min Rain = 0
KRO1 180123Z 01003KT 10/03 A3009 RMK A01 T01030033  RH  062%=      5-min Rain = 0
KRO1 180124Z 01003KT 11/03 A3009 RMK A01 T01050033  RH  061%=      5-min Rain = 0
KRO1 180125Z 01003KT 11/03 A3009 RMK A01 T01070033  RH  060%=      5-min Rain = 0
KRO1 180126Z 01003KT 11/03 A3009 RMK A01 T01090033  RH  059%=      5-min Rain = 0
KRO1 180127Z 01003KT 11/03 A3009 RMK A01 T01100032  RH  059%=      5-min Rain = 0
KRO1 180128Z 01003KT 11/03 A3009 RMK A01 T01100032  RH  059%=      5-min Rain = 0
KRO1 180129Z 01003KT 11/03 A3009 RMK A01 T01100033  RH  059%=      5-min Rain = 0
KRO1 180130Z 01003KT 11/03 A3009 RMK A01 T01090032  RH  059%=      5-min Rain = 0
KRO1 180131Z 01003KT 11/03 A3009 RMK A01 T01090031  RH  058%=      5-min Rain = 0
KRO1 180132Z 01003KT 11/03 A3009 RMK A01 T01100031  RH  058%=      5-min Rain = 0
KRO1 180133Z 01003KT 11/03 A3009 RMK A01 T01110031  RH  058%=      5-min Rain = 0
KRO1 180134Z 01003KT 11/03 A3009 RMK A01 T01120031  RH  057%=      5-min Rain = 0
KRO1 180135Z 01003KT 11/03 A3009 RMK A01 T01130030  RH  057%=      5-min Rain = 0
KRO1 180136Z 01003KT 11/03 A3009 RMK A01 T01130030  RH  057%=      5-min Rain = 0
KRO1 180137Z 01003KT 11/03 A3009 RMK A01 T01120030  RH  057%=      5-min Rain = 0
KRO1 180138Z 01003KT 11/03 A3009 RMK A01 T01120030  RH  057%=      5-min Rain = 0
KRO1 180139Z 01003KT 11/03 A3009 RMK A01 T01110030  RH  057%=      5-min Rain = 0
KRO1 180140Z 01003KT 11/03 A3009 RMK A01 T01110030  RH  057%=      5-min Rain = 0
KRO1 180141Z 00003KT 11/03 A3009 RMK A01 T01110030  RH  057%=      5-min Rain = 0
KRO1 180142Z 00003KT 11/03 A3009 RMK A01 T01110030  RH  057%=      5-min Rain = 0
KRO1 180143Z 00003KT 11/03 A3009 RMK A01 T01110029  RH  057%=      5-min Rain = 0
KRO1 180144Z 00003KT 11/03 A301 RMK A01 T01120029  RH  057%=      5-min Rain = 0
KRO1 180145Z 00003KT 11/03 A3009 RMK A01 T01140030  RH  056%=      5-min Rain = 0
KRO1 180146Z 00003KT 12/03 A3009 RMK A01 T01150029  RH  056%=      5-min Rain = 0
KRO1 180147Z 00004KT 12/03 A3009 RMK A01 T01160029  RH  055%=      5-min Rain = 0
KRO1 180148Z 00004KT 12/03 A301 RMK A01 T01170029  RH  055%=      5-min Rain = 0
KRO1 180149Z 00004KT 12/03 A301 RMK A01 T01160030  RH  055%=      5-min Rain = 0
KRO1 180150Z 00004KT 11/03 A301 RMK A01 T01130028  RH  056%=      5-min Rain = 0
KRO1 180151Z 00004KT 11/03 A301 RMK A01 T01110028  RH  057%=      5-min Rain = 0
KRO1 180152Z 00004KT 11/03 A301 RMK A01 T01100029  RH  057%=      5-min Rain = 0
KRO1 180153Z 36003KT 11/03 A301 RMK A01 T01110029  RH  057%=      5-min Rain = 0
KRO1 180154Z 35003KT 11/03 A301 RMK A01 T01110029  RH  057%=      5-min Rain = 0
KRO1 180155Z 35003KT 11/03 A301 RMK A01 T01100030  RH  058%=      5-min Rain = 0
KRO1 180156Z 34003KT 11/03 A301 RMK A01 T01060029  RH  059%=      5-min Rain = 0
KRO1 180157Z 34003KT 10/03 A301 RMK A01 T01020029  RH  061%=      5-min Rain = 0
KRO1 180158Z 34002KT 10/03 A301 RMK A01 T00970028  RH  062%=      5-min Rain = 0
KRO1 180159Z 34002KT 09/03 A301 RMK A01 T00940029  RH  064%=      5-min Rain = 0
KRO1 180200Z 34002KT 09/03 A301 RMK A01 T00930029  RH  065%=      5-min Rain = 0
KRO1 180201Z 34002KT 09/03 A301 RMK A01 T00920029  RH  065%=      5-min Rain = 0
KRO1 180202Z 34002KT 09/03 A301 RMK A01 T00920029  RH  065%=      5-min Rain = 0
KRO1 180203Z 34002KT 09/03 A301 RMK A01 T00920029  RH  065%=      5-min Rain = 0
KRO1 180204Z 33002KT 09/03 A301 RMK A01 T00920030  RH  065%=      5-min Rain = 0
KRO1 180205Z 33002KT 09/03 A301 RMK A01 T00910030  RH  066%=      5-min Rain = 0
KRO1 180206Z 33001KT 09/03 A301 RMK A01 T00910031  RH  066%=      5-min Rain = 0
KRO1 180207Z 31001KT 09/03 A301 RMK A01 T00910032  RH  066%=      5-min Rain = 0
KRO1 180208Z 31001KT 09/03 A301 RMK A01 T00920032  RH  066%=      5-min Rain = 0
KRO1 180209Z 31000KT 09/03 A301 RMK A01 T00930033  RH  066%=      5-min Rain = 0
KRO1 180210Z 00000KT 10/03 A301 RMK A01 T00950033  RH  065%=      5-min Rain = 0
KRO1 180211Z 00000KT 10/03 A301 RMK A01 T00960033  RH  065%=      5-min Rain = 0
KRO1 180212Z 27000KT 10/03 A3011 RMK A01 T00960032  RH  064%=      5-min Rain = 0
KRO1 180213Z 27001KT 10/03 A3011 RMK A01 T00960032  RH  064%=      5-min Rain = 0
KRO1 180214Z 28000KT 10/03 A3011 RMK A01 T00960032  RH  065%=      5-min Rain = 0
KRO1 180215Z 28000KT 10/03 A3011 RMK A01 T00960032  RH  065%=      5-min Rain = 0
KRO1 180216Z 28001KT 10/03 A3011 RMK A01 T00970032  RH  064%=      5-min Rain = 0
KRO1 180217Z 28000KT 10/03 A3011 RMK A01 T00980032  RH  063%=      5-min Rain = 0
KRO1 180218Z 28001KT 10/03 A3011 RMK A01 T00980032  RH  063%=      5-min Rain = 0
KRO1 180219Z 27001KT 10/03 A3011 RMK A01 T00970032  RH  064%=      5-min Rain = 0
KRO1 180220Z 27001KT 10/03 A3011 RMK A01 T00950032  RH  065%=      5-min Rain = 0
KRO1 180221Z 26001KT 09/03 A3011 RMK A01 T00940032  RH  065%=      5-min Rain = 0
KRO1 180222Z 26001KT 09/03 A3011 RMK A01 T00930032  RH  066%=      5-min Rain = 0
KRO1 180223Z 25001KT 09/03 A3011 RMK A01 T00920032  RH  066%=      5-min Rain = 0
KRO1 180224Z 25001KT 09/03 A3011 RMK A01 T00920032  RH  066%=      5-min Rain = 0
KRO1 180225Z 25001KT 09/03 A3011 RMK A01 T00920033  RH  067%=      5-min Rain = 0
KRO1 180226Z 24001KT 09/03 A3011 RMK A01 T00910032  RH  067%=      5-min Rain = 0
KRO1 180227Z 24001KT 09/03 A3011 RMK A01 T00910032  RH  067%=      5-min Rain = 0
KRO1 180228Z 24000KT 09/03 A3011 RMK A01 T00920032  RH  066%=      5-min Rain = 0
KRO1 180229Z 00000KT 09/03 A3011 RMK A01 T00920032  RH  066%=      5-min Rain = 0
KRO1 180230Z 00000KT 09/03 A3011 RMK A01 T00930032  RH  066%=      5-min Rain = 0
KRO1 180231Z 00000KT 09/03 A3011 RMK A01 T00930032  RH  066%=      5-min Rain = 0
KRO1 180232Z 00000KT 09/03 A3011 RMK A01 T00930032  RH  066%=      5-min Rain = 0
KRO1 180233Z 18001KT 09/03 A3011 RMK A01 T00920032  RH  066%=      5-min Rain = 0
KRO1 180234Z 18001KT 09/03 A3011 RMK A01 T00900031  RH  067%=      5-min Rain = 0
KRO1 180235Z 19001KT 09/03 A3011 RMK A01 T00880031  RH  068%=      5-min Rain = 0
KRO1 180236Z 19000KT 09/03 A3011 RMK A01 T00850031  RH  069%=      5-min Rain = 0
KRO1 180237Z 16001KT 08/03 A3011 RMK A01 T00840031  RH  069%=      5-min Rain = 0
KRO1 180238Z 17000KT 08/03 A3011 RMK A01 T00830031  RH  070%=      5-min Rain = 0
KRO1 180239Z 00000KT 08/03 A3011 RMK A01 T00840032  RH  070%=      5-min Rain = 0
KRO1 180240Z 00000KT 08/03 A3011 RMK A01 T00840032  RH  069%=      5-min Rain = 0
KRO1 180241Z 00000KT 09/03 A3011 RMK A01 T00850032  RH  069%=      5-min Rain = 0
KRO1 180242Z 36001KT 09/03 A3011 RMK A01 T00880032  RH  068%=      5-min Rain = 0
KRO1 180243Z 01000KT 09/03 A3011 RMK A01 T00920033  RH  066%=      5-min Rain = 0
KRO1 180244Z 00000KT 09/03 A3011 RMK A01 T00940032  RH  065%=      5-min Rain = 0
KRO1 180245Z 00000KT 09/03 A3011 RMK A01 T00940031  RH  065%=      5-min Rain = 0
KRO1 180246Z 00000KT 09/03 A3011 RMK A01 T00930030  RH  065%=      5-min Rain = 0
KRO1 180247Z 36000KT 09/03 A3011 RMK A01 T00920030  RH  065%=      5-min Rain = 0
KRO1 180248Z 34001KT 09/03 A3011 RMK A01 T00940030  RH  065%=      5-min Rain = 0
KRO1 180249Z 34000KT 10/03 A3011 RMK A01 T00950031  RH  064%=      5-min Rain = 0
KRO1 180250Z 34001KT 10/03 A3011 RMK A01 T00950030  RH  064%=      5-min Rain = 0
KRO1 180251Z 34000KT 10/03 A3011 RMK A01 T00970030  RH  063%=      5-min Rain = 0
KRO1 180252Z 31000KT 10/03 A3011 RMK A01 T01010030  RH  061%=      5-min Rain = 0
KRO1 180253Z 31000KT 10/03 A3011 RMK A01 T01040030  RH  060%=      5-min Rain = 0
KRO1 180254Z 31001KT 11/03 A3011 RMK A01 T01050030  RH  060%=      5-min Rain = 0
KRO1 180255Z 30001KT 10/03 A3011 RMK A01 T01030029  RH  060%=      5-min Rain = 0
KRO1 180256Z 27001KT 10/03 A3011 RMK A01 T00990029  RH  062%=      5-min Rain = 0
KRO1 180257Z 26001KT 10/03 A3011 RMK A01 T00960028  RH  063%=      5-min Rain = 0
KRO1 180258Z 26001KT 10/03 A3011 RMK A01 T00980029  RH  062%=      5-min Rain = 0
KRO1 180259Z 26001KT 10/03 A3011 RMK A01 T00990029  RH  062%=      5-min Rain = 0
KRO1 180300Z 26001KT 10/03 A3011 RMK A01 T01010029  RH  061%=      5-min Rain = 0
KRO1 180301Z 29001KT 11/03 A3011 RMK A01 T01050029  RH  059%=      5-min Rain = 0
KRO1 180302Z 29001KT 11/03 A3011 RMK A01 T01070029  RH  058%=      5-min Rain = 0
KRO1 180303Z 28001KT 11/03 A3011 RMK A01 T01050029  RH  059%=      5-min Rain = 0
KRO1 180304Z 28001KT 10/03 A3011 RMK A01 T01000029  RH  061%=      5-min Rain = 0
KRO1 180305Z 27002KT 10/03 A3011 RMK A01 T00950028  RH  063%=      5-min Rain = 0
KRO1 180306Z 26002KT 09/03 A3011 RMK A01 T00930029  RH  064%=      5-min Rain = 0
KRO1 180307Z 25003KT 09/03 A3012 RMK A01 T00910028  RH  065%=      5-min Rain = 0
KRO1 180308Z 25004KT 09/03 A3012 RMK A01 T00870028  RH  066%=      5-min Rain = 0
KRO1 180309Z 25004KT 09/03 A3012 RMK A01 T00850028  RH  068%=      5-min Rain = 0
KRO1 180310Z 25005KT 08/03 A3011 RMK A01 T00840029  RH  069%=      5-min Rain = 0
KRO1 180311Z 24005KT 08/03 A3011 RMK A01 T00840030  RH  069%=      5-min Rain = 0
KRO1 180312Z 24006KT 08/03 A3011 RMK A01 T00830030  RH  069%=      5-min Rain = 0
KRO1 180313Z 24006KT 08/03 A3011 RMK A01 T00830031  RH  070%=      5-min Rain = 0
KRO1 180314Z 25005KT 08/03 A3011 RMK A01 T00820031  RH  070%=      5-min Rain = 0
KRO1 180315Z 25005KT 08/03 A3011 RMK A01 T00830032  RH  070%=      5-min Rain = 0
KRO1 180316Z 25005KT 08/03 A3011 RMK A01 T00830032  RH  070%=      5-min Rain = 0
KRO1 180317Z 24006KT 08/03 A3012 RMK A01 T00840032  RH  070%=      5-min Rain = 0
KRO1 180318Z 24006KT 08/03 A3012 RMK A01 T00840033  RH  070%=      5-min Rain = 0
KRO1 180319Z 23006KT 08/03 A3012 RMK A01 T00830033  RH  071%=      5-min Rain = 0
KRO1 180320Z 23006KT 08/03 A3012 RMK A01 T00810032  RH  071%=      5-min Rain = 0
KRO1 180321Z 23006KT 08/03 A3012 RMK A01 T00800032  RH  072%=      5-min Rain = 0
KRO1 180322Z 23006KT 08/03 A3012 RMK A01 T00790032  RH  072%=      5-min Rain = 0
KRO1 180323Z 23006KT 08/03 A3012 RMK A01 T00780032  RH  073%=      5-min Rain = 0
KRO1 180324Z 23006KT 08/03 A3012 RMK A01 T00770032  RH  073%=      5-min Rain = 0
KRO1 180325Z 23006KT 08/03 A3012 RMK A01 T00760032  RH  074%=      5-min Rain = 0
KRO1 180326Z 23006KT 08/03 A3012 RMK A01 T00760032  RH  074%=      5-min Rain = 0
KRO1 180327Z 23006KT 08/03 A3012 RMK A01 T00760032  RH  074%=      5-min Rain = 0
KRO1 180328Z 23006KT 08/03 A3012 RMK A01 T00760032  RH  074%=      5-min Rain = 0
KRO1 180329Z 24006KT 08/03 A3012 RMK A01 T00760032  RH  073%=      5-min Rain = 0
KRO1 180330Z 24006KT 08/03 A3012 RMK A01 T00760032  RH  073%=      5-min Rain = 0
KRO1 180331Z 25006KT 08/03 A3012 RMK A01 T00760031  RH  073%=      5-min Rain = 0
KRO1 180332Z 25006KT 08/03 A3012 RMK A01 T00760031  RH  073%=      5-min Rain = 0
KRO1 180333Z 25006KT 08/03 A3012 RMK A01 T00770031  RH  072%=      5-min Rain = 0
KRO1 180334Z 25006KT 08/03 A3012 RMK A01 T00770030  RH  072%=      5-min Rain = 0
KRO1 180335Z 25005KT 08/03 A3012 RMK A01 T00770030  RH  072%=      5-min Rain = 0
KRO1 180336Z 26005KT 08/03 A3012 RMK A01 T00780031  RH  072%=      5-min Rain = 0
KRO1 180337Z 26005KT 08/03 A3012 RMK A01 T00780031  RH  072%=      5-min Rain = 0
KRO1 180338Z 26004KT 08/03 A3012 RMK A01 T00770031  RH  072%=      5-min Rain = 0
KRO1 180339Z 26004KT 08/03 A3012 RMK A01 T00770030  RH  072%=      5-min Rain = 0
KRO1 180340Z 27004KT 08/03 A3012 RMK A01 T00770030  RH  072%=      5-min Rain = 0
KRO1 180341Z 26004KT 08/03 A3012 RMK A01 T00770030  RH  072%=      5-min Rain = 0
KRO1 180342Z 26004KT 08/03 A3012 RMK A01 T00760030  RH  072%=      5-min Rain = 0
KRO1 180343Z 26004KT 08/03 A3012 RMK A01 T00770030  RH  072%=      5-min Rain = 0
KRO1 180344Z 26003KT 08/03 A3012 RMK A01 T00770030  RH  072%=      5-min Rain = 0
KRO1 180345Z 26003KT 08/03 A3012 RMK A01 T00770030  RH  072%=      5-min Rain = 0
KRO1 180346Z 25003KT 08/03 A3011 RMK A01 T00780030  RH  072%=      5-min Rain = 0
KRO1 180347Z 25003KT 08/03 A3011 RMK A01 T00770030  RH  072%=      5-min Rain = 0
KRO1 180348Z 25003KT 08/03 A3011 RMK A01 T00770030  RH  072%=      5-min Rain = 0
KRO1 180349Z 25003KT 08/03 A3011 RMK A01 T00770030  RH  072%=      5-min Rain = 0
KRO1 180350Z 25003KT 08/03 A3011 RMK A01 T00770030  RH  072%=      5-min Rain = 0
KRO1 180351Z 25003KT 08/03 A3011 RMK A01 T00780030  RH  072%=      5-min Rain = 0
KRO1 180352Z 25003KT 08/03 A3011 RMK A01 T00790030  RH  071%=      5-min Rain = 0
KRO1 180353Z 25003KT 08/03 A3011 RMK A01 T00800030  RH  071%=      5-min Rain = 0
KRO1 180354Z 25003KT 08/03 A3011 RMK A01 T00810030  RH  070%=      5-min Rain = 0
KRO1 180355Z 25002KT 08/03 A3011 RMK A01 T00820030  RH  070%=      5-min Rain = 0
KRO1 180356Z 25002KT 08/03 A3011 RMK A01 T00820030  RH  070%=      5-min Rain = 0
KRO1 180357Z 25002KT 08/03 A3011 RMK A01 T00820030  RH  070%=      5-min Rain = 0
KRO1 180358Z 25002KT 08/03 A3011 RMK A01 T00830030  RH  069%=      5-min Rain = 0
KRO1 180359Z 25002KT 08/03 A3011 RMK A01 T00830030  RH  069%=      5-min Rain = 0
KRO1 180400Z 25002KT 08/03 A3011 RMK A01 T00840030  RH  069%=      5-min Rain = 0
KRO1 180401Z 24002KT 08/03 A3011 RMK A01 T00830030  RH  069%=      5-min Rain = 0
KRO1 180402Z 24003KT 08/03 A3011 RMK A01 T00820029  RH  069%=      5-min Rain = 0
KRO1 180403Z 24003KT 08/03 A3011 RMK A01 T00820029  RH  070%=      5-min Rain = 0
KRO1 180404Z 24003KT 08/03 A3011 RMK A01 T00810029  RH  070%=      5-min Rain = 0
KRO1 180405Z 24003KT 08/03 A3011 RMK A01 T00790029  RH  071%=      5-min Rain = 0
KRO1 180406Z 24003KT 08/03 A3011 RMK A01 T00780029  RH  071%=      5-min Rain = 0
KRO1 180407Z 24003KT 08/03 A3011 RMK A01 T00770029  RH  072%=      5-min Rain = 0
KRO1 180408Z 24003KT 08/03 A3011 RMK A01 T00770029  RH  072%=      5-min Rain = 0
KRO1 180409Z 24003KT 08/03 A3011 RMK A01 T00770029  RH  072%=      5-min Rain = 0
KRO1 180410Z 24003KT 08/03 A3011 RMK A01 T00760029  RH  072%=      5-min Rain = 0
KRO1 180411Z 24004KT 08/03 A3011 RMK A01 T00760029  RH  072%=      5-min Rain = 0
KRO1 180412Z 24004KT 08/03 A3011 RMK A01 T00760029  RH  072%=      5-min Rain = 0
KRO1 180413Z 24004KT 08/03 A3011 RMK A01 T00750029  RH  072%=      5-min Rain = 0
KRO1 180414Z 24004KT 08/03 A301 RMK A01 T00750029  RH  072%=      5-min Rain = 0
KRO1 180415Z 24004KT 08/03 A301 RMK A01 T00750029  RH  073%=      5-min Rain = 0
KRO1 180416Z 25003KT 07/03 A301 RMK A01 T00740029  RH  073%=      5-min Rain = 0
KRO1 180417Z 25003KT 08/03 A301 RMK A01 T00750029  RH  072%=      5-min Rain = 0
KRO1 180418Z 25003KT 08/03 A301 RMK A01 T00750028  RH  072%=      5-min Rain = 0
KRO1 180419Z 25003KT 08/03 A301 RMK A01 T00750028  RH  072%=      5-min Rain = 0
KRO1 180420Z 25003KT 07/03 A301 RMK A01 T00730028  RH  073%=      5-min Rain = 0
KRO1 180421Z 25003KT 07/03 A301 RMK A01 T00720028  RH  074%=      5-min Rain = 0
KRO1 180422Z 25003KT 07/03 A301 RMK A01 T00720028  RH  074%=      5-min Rain = 0
KRO1 180423Z 25003KT 07/03 A301 RMK A01 T00730028  RH  073%=      5-min Rain = 0
KRO1 180424Z 24003KT 07/03 A301 RMK A01 T00730029  RH  073%=      5-min Rain = 0
KRO1 180425Z 24003KT 07/03 A301 RMK A01 T00740029  RH  073%=      5-min Rain = 0
KRO1 180426Z 24003KT 08/03 A301 RMK A01 T00760029  RH  072%=      5-min Rain = 0
KRO1 180427Z 24002KT 08/03 A301 RMK A01 T00770029  RH  072%=      5-min Rain = 0
KRO1 180428Z 24002KT 08/03 A301 RMK A01 T00770028  RH  071%=      5-min Rain = 0
KRO1 180429Z 24002KT 08/03 A301 RMK A01 T00780029  RH  071%=      5-min Rain = 0
KRO1 180430Z 24003KT 08/03 A301 RMK A01 T00780028  RH  071%=      5-min Rain = 0
KRO1 180431Z 24003KT 08/03 A301 RMK A01 T00770028  RH  071%=      5-min Rain = 0
KRO1 180432Z 23004KT 08/03 A301 RMK A01 T00750028  RH  072%=      5-min Rain = 0
KRO1 180433Z 24004KT 07/03 A301 RMK A01 T00730027  RH  073%=      5-min Rain = 0
KRO1 180434Z 24004KT 07/03 A301 RMK A01 T00720027  RH  073%=      5-min Rain = 0
KRO1 180435Z 24004KT 07/03 A301 RMK A01 T00720028  RH  073%=      5-min Rain = 0
KRO1 180436Z 24004KT 07/03 A301 RMK A01 T00730028  RH  073%=      5-min Rain = 0
KRO1 180437Z 24004KT 07/03 A301 RMK A01 T00740027  RH  072%=      5-min Rain = 0
KRO1 180438Z 24005KT 07/03 A301 RMK A01 T00740027  RH  072%=      5-min Rain = 0
KRO1 180439Z 24004KT 07/03 A301 RMK A01 T00740027  RH  072%=      5-min Rain = 0
KRO1 180440Z 24004KT 07/03 A301 RMK A01 T00730027  RH  073%=      5-min Rain = 0
KRO1 180441Z 25005KT 07/03 A301 RMK A01 T00730027  RH  073%=      5-min Rain = 0
KRO1 180442Z 25004KT 07/03 A301 RMK A01 T00740028  RH  072%=      5-min Rain = 0
KRO1 180443Z 25004KT 08/03 A301 RMK A01 T00750029  RH  072%=      5-min Rain = 0
KRO1 180444Z 25004KT 08/03 A301 RMK A01 T00760028  RH  072%=      5-min Rain = 0
KRO1 180445Z 25004KT 08/03 A301 RMK A01 T00760028  RH  072%=      5-min Rain = 0
KRO1 180446Z 25004KT 08/03 A301 RMK A01 T00760029  RH  072%=      5-min Rain = 0
KRO1 180447Z 25004KT 08/03 A301 RMK A01 T00760028  RH  072%=      5-min Rain = 0
KRO1 180448Z 25004KT 08/03 A301 RMK A01 T00750028  RH  072%=      5-min Rain = 0
KRO1 180449Z 25004KT 07/03 A301 RMK A01 T00740028  RH  072%=      5-min Rain = 0
KRO1 180450Z 24004KT 07/03 A301 RMK A01 T00730028  RH  073%=      5-min Rain = 0
KRO1 180451Z 24004KT 07/03 A301 RMK A01 T00720028  RH  073%=      5-min Rain = 0
KRO1 180452Z 24005KT 07/03 A301 RMK A01 T00720028  RH  073%=      5-min Rain = 0
KRO1 180453Z 24005KT 07/03 A301 RMK A01 T00720028  RH  073%=      5-min Rain = 0
KRO1 180454Z 23005KT 07/03 A301 RMK A01 T00740028  RH  073%=      5-min Rain = 0
KRO1 180455Z 23005KT 08/03 A301 RMK A01 T00760029  RH  072%=      5-min Rain = 0
KRO1 180456Z 23004KT 08/03 A301 RMK A01 T00770028  RH  071%=      5-min Rain = 0
KRO1 180457Z 23004KT 08/03 A301 RMK A01 T00770028  RH  071%=      5-min Rain = 0
KRO1 180458Z 23004KT 08/03 A301 RMK A01 T00770028  RH  071%=      5-min Rain = 0
KRO1 180459Z 24004KT 08/03 A301 RMK A01 T00760028  RH  071%=      5-min Rain = 0
KRO1 180500Z 24004KT 08/03 A3009 RMK A01 T00760028  RH  072%=      5-min Rain = 0
KRO1 180501Z 24004KT 08/03 A3009 RMK A01 T00750028  RH  072%=      5-min Rain = 0
KRO1 180502Z 24004KT 08/03 A3009 RMK A01 T00750028  RH  072%=      5-min Rain = 0
KRO1 180503Z 24004KT 08/03 A3009 RMK A01 T00760028  RH  072%=      5-min Rain = 0
KRO1 180504Z 23004KT 08/03 A3009 RMK A01 T00770028  RH  071%=      5-min Rain = 0
KRO1 180505Z 23004KT 08/03 A3009 RMK A01 T00780028  RH  071%=      5-min Rain = 0
KRO1 180506Z 23004KT 08/03 A3009 RMK A01 T00780028  RH  070%=      5-min Rain = 0
KRO1 180507Z 23004KT 08/03 A3009 RMK A01 T00790028  RH  070%=      5-min Rain = 0
KRO1 180508Z 23004KT 08/03 A3009 RMK A01 T00790028  RH  070%=      5-min Rain = 0
KRO1 180509Z 23004KT 08/03 A3009 RMK A01 T00780028  RH  071%=      5-min Rain = 0
KRO1 180510Z 23004KT 08/03 A3009 RMK A01 T00770028  RH  071%=      5-min Rain = 0
KRO1 180511Z 23004KT 08/03 A3009 RMK A01 T00750027  RH  071%=      5-min Rain = 0
KRO1 180512Z 23003KT 08/03 A3009 RMK A01 T00750027  RH  072%=      5-min Rain = 0
KRO1 180513Z 23003KT 08/03 A3009 RMK A01 T00750027  RH  072%=      5-min Rain = 0
KRO1 180514Z 23003KT 08/03 A3008 RMK A01 T00750027  RH  072%=      5-min Rain = 0
KRO1 180515Z 23003KT 07/03 A3008 RMK A01 T00740027  RH  072%=      5-min Rain = 0
KRO1 180516Z 23003KT 07/03 A3008 RMK A01 T00740027  RH  072%=      5-min Rain = 0
KRO1 180517Z 23003KT 07/03 A3008 RMK A01 T00730027  RH  072%=      5-min Rain = 0
KRO1 180518Z 23002KT 07/03 A3008 RMK A01 T00720026  RH  073%=      5-min Rain = 0
KRO1 180519Z 23002KT 07/03 A3008 RMK A01 T00710026  RH  073%=      5-min Rain = 0
KRO1 180520Z 23002KT 07/03 A3008 RMK A01 T00700026  RH  074%=      5-min Rain = 0
KRO1 180521Z 23002KT 07/03 A3008 RMK A01 T00690026  RH  074%=      5-min Rain = 0
KRO1 180522Z 23002KT 07/03 A3008 RMK A01 T00680026  RH  074%=      5-min Rain = 0
KRO1 180523Z 23002KT 07/03 A3008 RMK A01 T00680026  RH  075%=      5-min Rain = 0
KRO1 180524Z 23002KT 07/03 A3008 RMK A01 T00690026  RH  075%=      5-min Rain = 0
KRO1 180525Z 23002KT 07/03 A3008 RMK A01 T00690026  RH  074%=      5-min Rain = 0
KRO1 180526Z 23002KT 07/03 A3008 RMK A01 T00700027  RH  074%=      5-min Rain = 0
KRO1 180527Z 22002KT 07/03 A3008 RMK A01 T00710026  RH  073%=      5-min Rain = 0
KRO1 180528Z 21002KT 07/03 A3008 RMK A01 T00720027  RH  073%=      5-min Rain = 0
KRO1 180529Z 21002KT 07/03 A3008 RMK A01 T00720026  RH  073%=      5-min Rain = 0
KRO1 180530Z 21002KT 07/03 A3008 RMK A01 T00720026  RH  073%=      5-min Rain = 0
KRO1 180531Z 20002KT 07/03 A3008 RMK A01 T00720026  RH  073%=      5-min Rain = 0
KRO1 180532Z 21003KT 07/03 A3008 RMK A01 T00710026  RH  073%=      5-min Rain = 0
KRO1 180533Z 21003KT 07/03 A3008 RMK A01 T00710026  RH  073%=      5-min Rain = 0
KRO1 180534Z 21003KT 07/03 A3008 RMK A01 T00700026  RH  073%=      5-min Rain = 0
KRO1 180535Z 21003KT 07/03 A3008 RMK A01 T00690026  RH  074%=      5-min Rain = 0
KRO1 180536Z 21004KT 07/03 A3008 RMK A01 T00680026  RH  074%=      5-min Rain = 0
KRO1 180537Z 22003KT 07/03 A3008 RMK A01 T00670026  RH  075%=      5-min Rain = 0
KRO1 180538Z 22003KT 07/03 A3008 RMK A01 T00660026  RH  076%=      5-min Rain = 0
KRO1 180539Z 22003KT 07/03 A3008 RMK A01 T00660026  RH  075%=      5-min Rain = 0
KRO1 180540Z 22003KT 07/03 A3008 RMK A01 T00660025  RH  075%=      5-min Rain = 0
KRO1 180541Z 23003KT 07/03 A3008 RMK A01 T00670026  RH  075%=      5-min Rain = 0
KRO1 180542Z 23003KT 07/03 A3008 RMK A01 T00680026  RH  075%=      5-min Rain = 0
KRO1 180543Z 23003KT 07/03 A3008 RMK A01 T00690026  RH  074%=      5-min Rain = 0
KRO1 180544Z 23002KT 07/03 A3008 RMK A01 T00700026  RH  074%=      5-min Rain = 0
KRO1 180545Z 22002KT 07/03 A3008 RMK A01 T00710027  RH  073%=      5-min Rain = 0
KRO1 180546Z 21003KT 07/03 A3008 RMK A01 T00720027  RH  073%=      5-min Rain = 0
KRO1 180547Z 21003KT 07/03 A3008 RMK A01 T00710026  RH  073%=      5-min Rain = 0
KRO1 180548Z 21004KT 07/02 A3008 RMK A01 T00690024  RH  073%=      5-min Rain = 0
KRO1 180549Z 22004KT 07/02 A3008 RMK A01 T00650023  RH  075%=      5-min Rain = 0
KRO1 180550Z 22005KT 06/02 A3008 RMK A01 T00620024  RH  077%=      5-min Rain = 0
KRO1 180551Z 22004KT 06/02 A3008 RMK A01 T00610024  RH  077%=      5-min Rain = 0
KRO1 180552Z 22004KT 06/02 A3008 RMK A01 T00600024  RH  077%=      5-min Rain = 0
KRO1 180553Z 23004KT 06/02 A3008 RMK A01 T00600024  RH  078%=      5-min Rain = 0
KRO1 180554Z 23005KT 06/03 A3008 RMK A01 T00610025  RH  078%=      5-min Rain = 0
KRO1 180555Z 23005KT 06/03 A3008 RMK A01 T00620025  RH  077%=      5-min Rain = 0
KRO1 180556Z 24005KT 06/03 A3008 RMK A01 T00630025  RH  077%=      5-min Rain = 0
KRO1 180557Z 24005KT 06/03 A3008 RMK A01 T00630025  RH  077%=      5-min Rain = 0
KRO1 180558Z 24005KT 06/03 A3008 RMK A01 T00640026  RH  077%=      5-min Rain = 0
KRO1 180559Z 24006KT 07/03 A3008 RMK A01 T00650026  RH  076%=      5-min Rain = 0

Page generated in 0.1293 seconds.